Calls for Service

Disclaimer: This information is not intended to be used as official crime data. This program does not provide information about all crimes, and excludes specific incidents such as sexual assaults and child abuse. The City of Conway Police Department makes every effort to produce and publish current and accurate information. No warranties, expressed or implied, are provided for the data herein, its use, or its interpretation. The services provided are for informational purposes only and should not be relied on for any type of legal action.

Loading calls...
Showing calls from previous 10 days
Call Number Case Number Address Call Time Incident Type
17-0404975 3437 COLLEGE AV Apr 29 2017 10:14:40:513AM TRAFFIC PROBLEM-CONTROL
17-0404972 975 WINEBERRY RD Apr 29 2017 09:30:54:693AM CHECKING VEHICLE
17-0404970 17-05119 1090 SKYLINE DR Apr 29 2017 08:58:11:697AM FRAUD
17-0404967 1450 RACHEL DR Apr 29 2017 08:16:49:233AM ATTEMPT TO CONTACT
17-0404966 1620 MIDDLE RD Apr 29 2017 08:05:41:397AM CHECK ON THE WELFARE
17-0404965 1620 MIDDLE RD Apr 29 2017 07:58:22:143AM ATTEMPT TO CONTACT
17-0404964 1620 MIDDLE RD Apr 29 2017 07:48:35:110AM CHECK ON THE WELFARE
17-0404962 3635 GRESHAM DR Apr 29 2017 05:21:09:270AM SUSPICIOUS VEHICLE
17-0404960 2730 DAVE WARD DR Apr 29 2017 03:12:06:600AM CHECK ON THE WELFARE
17-0404959 1908 DAVE WARD DR Apr 29 2017 02:45:45:877AM LOUD NOISE-MUSIC
17-0404958 3900 DAVE WARD DR Apr 29 2017 02:38:41:877AM ALARM
17-0404954 2022 ERBACH ST Apr 29 2017 02:04:13:977AM LOUD NOISE-MUSIC
17-0404953 1962 BRUCE ST Apr 29 2017 01:54:13:850AM CHECK ON THE WELFARE
17-0404952 1815 SYLAR CIR Apr 29 2017 01:49:06:320AM CRIMINAL MISCHIEF
17-0404951 235 FARRIS RD Apr 29 2017 01:44:18:470AM DISTURBANCE
17-0404950 2695 DAVE WARD DR Apr 29 2017 01:33:45:563AM BREAKING OR ENTERING
17-0404944 3602 OLD MORRILTON HWY Apr 29 2017 01:01:10:997AM CHECK ON THE WELFARE
17-0404943 325 AUGUSTA AV Apr 29 2017 12:48:28:047AM LOUD NOISE-MUSIC
17-0404942 17-05117 1002 E OAK ST Apr 29 2017 12:31:16:303AM CRIMINAL MISCHIEF
17-0404941 557 FACTORY ST Apr 29 2017 12:14:10:027AM DOMESTIC DISTURBANCE
17-0404939 3900 DAVE WARD DR Apr 28 2017 11:53:08:990PM ALARM
17-0404938 1360 WINDSTORM DR Apr 28 2017 11:26:19:370PM CRIMINAL MISCHIEF
17-0404937 1055 BROOKSIDE DR Apr 28 2017 11:24:47:787PM DISTURBANCE
17-0404936 17-05116 2715 PRINCE ST Apr 28 2017 11:24:43:733PM ACCIDENT - PRIVATE PROPERTY
17-0404935 530 S DONAGHEY AV Apr 28 2017 11:22:05:147PM LOUD NOISE-MUSIC
17-0404934 404 S HARKRIDER DR Apr 28 2017 11:17:06:830PM LOUD NOISE-MUSIC
17-0404933 955 SOUTH GERMAN LN Apr 28 2017 10:56:22:823PM ARMED SUBJECT
17-0404932 17-05115 2165 HARKRIDER ST Apr 28 2017 10:51:29:603PM ACCIDENT - PROPERTY DAMAGE
17-0404930 4010 IRBY DR Apr 28 2017 10:38:29:963PM LOUD NOISE-MUSIC
17-0404929 1601 HOGAN LN Apr 28 2017 10:12:56:480PM DOMESTIC DISTURBANCE
17-0404925 1201 EXCHANGE AV Apr 28 2017 09:48:58:253PM OPEN DOOR/WINDOW/FENCE
17-0404924 1180 NEAL ST Apr 28 2017 09:41:29:737PM SUSPICIOUS VEHICLE
17-0404923 17-05114 2430 SANDERS ST Apr 28 2017 09:39:41:057PM BATTERY REPORT
17-0404921 217 MERRIMAN ST Apr 28 2017 09:14:48:830PM UNKNOWN TROUBLE
17-0404920 2500 OLD MORRILTON HWY Apr 28 2017 09:09:24:427PM STALLED VEHICLE
17-0404919 500 SOUTH GERMAN LN Apr 28 2017 09:06:00:357PM FELONY WARRANT SERVICE
17-0404918 1601 TYLER ST Apr 28 2017 09:01:14:357PM RECKLESS DRIVER
17-0404917 825 WILLIAM J CLARK DR Apr 28 2017 08:52:27:437PM ALARM
17-0404915 2300 HOGAN LN Apr 28 2017 08:44:06:097PM SUSPICIOUS VEHICLE
17-0404913 17-05113 1000 EAST GERMAN LN Apr 28 2017 08:42:00:323PM ACCIDENT - PROPERTY DAMAGE
17-0404912 2500 OLD MORRILTON HWY Apr 28 2017 08:38:21:910PM STALLED VEHICLE
17-0404910 2015 RICH SMITH LN Apr 28 2017 08:34:14:800PM CHECKING VEHICLE
17-0404909 1908 HOGAN LN Apr 28 2017 08:29:13:990PM LOUD NOISE-MUSIC
17-0404908 1918 TORREYSON ST Apr 28 2017 08:25:13:330PM HARASSMENT
17-0404907 475 ROBINS ST Apr 28 2017 08:01:54:253PM DOMESTIC DISTURBANCE
17-0404905 17-05111 2810 SUMMERSET DR Apr 28 2017 07:41:43:810PM THEFT OF PROPERTY
17-0404904 607 FRONT ST Apr 28 2017 07:36:05:700PM SUSPICIOUS VEHICLE
17-0404903 17-05110 2840 DAVE WARD DR Apr 28 2017 07:23:13:250PM TERRORISTIC THREATENING
17-0404902 17-05109 1621 PRINCE ST Apr 28 2017 07:14:25:823PM CRIMINAL MISCHIEF
17-0404901 1260 S AMITY RD Apr 28 2017 07:13:53:613PM THEFT OF PROPERTY
17-0404900 4675 OLD MORRILTON HWY Apr 28 2017 07:12:58:420PM SUSPICIOUS PERSON
17-0404899 17-05112 2515 W MARTIN ST Apr 28 2017 07:07:06:683PM FRAUD
17-0404898 17-05108 1105 PRAIRIE ST Apr 28 2017 06:52:45:460PM HARASSMENT
17-0404897 2000 KEATHLEY DR Apr 28 2017 06:48:55:160PM TRESPASSING
17-0404895 1101 FENDLEY DR Apr 28 2017 06:08:21:217PM CHECK ON THE WELFARE
17-0404893 2116 TYLER ST Apr 28 2017 06:05:02:870PM BATTERY REPORT
17-0404892 1155 SKYLINE DR Apr 28 2017 06:03:43:813PM SUSPICIOUS PERSON
17-0404891 3900 DAVE WARD DR Apr 28 2017 06:00:03:113PM THEFT OF PROPERTY
17-0404890 2400 MARKET PLAZA DR Apr 28 2017 05:28:45:600PM DOMESTIC DISTURBANCE
17-0404889 2302 COLLEGE AV Apr 28 2017 05:15:19:567PM CHECK ON THE WELFARE
17-0404888 2100 LOOKOUT AV Apr 28 2017 05:15:00:827PM SUSPICIOUS ACTIVITY
17-0404887 2310 ROBINSON AV Apr 28 2017 05:10:38:533PM SUPPLEMENT REPORT CALL
17-0404886 1815 PRINCE ST Apr 28 2017 04:49:15:880PM ATTEMPT TO CONTACT
17-0404885 307 MILDRED ST Apr 28 2017 04:43:50:290PM HARASSING COMMUNICATIONS
17-0404883 1010 E OAK ST Apr 28 2017 04:40:25:917PM CHECK ON THE WELFARE
17-0404882 17-05107 1815 PRINCE ST Apr 28 2017 04:32:42:377PM UNKNOWN TROUBLE
17-0404881 1325 OLD MORRILTON HWY Apr 28 2017 04:30:21:767PM CHECK ON THE WELFARE
17-0404880 17-05106 260 GRAND FALLS Apr 28 2017 04:28:59:733PM DOMESTIC DISTURBANCE
17-0404878 17-05104 2050 DAVE WARD DR Apr 28 2017 04:19:02:897PM ACCIDENT - PROPERTY DAMAGE
17-0404877 17-05105 150 E SIEBENMORGEN RD Apr 28 2017 04:05:55:817PM ROAD RAGE
17-0404876 2690 DONAGHEY AV Apr 28 2017 04:05:20:353PM FRAUD
17-0404875 409 CENTER ST Apr 28 2017 04:04:30:063PM ATTEMPT TO CONTACT
17-0404874 280 HWY 64 EAST Apr 28 2017 03:54:11:783PM RECOVERED VEHICLE
17-0404873 325 MILL ST Apr 28 2017 03:53:56:100PM CHECKING VEHICLE
17-0404872 1640 WARWICK HILLS LN Apr 28 2017 03:44:34:897PM SUPPLEMENT REPORT CALL
17-0404871 17-05099 1720 OLD MORRILTON HWY Apr 28 2017 03:39:06:610PM ACCIDENT - PERSONAL INJURY
17-0404870 400 HARKRIDER ST Apr 28 2017 03:34:43:340PM ACCIDENT - PROPERTY DAMAGE
17-0404869 17-05098 800 PADGETT RD Apr 28 2017 03:34:37:433PM ACCIDENT - PRIVATE PROPERTY
17-0404868 331 HELEN ST Apr 28 2017 03:33:56:333PM CITIZEN ASSIST
17-0404867 17-05101 428 HARKRIDER ST Apr 28 2017 03:33:24:703PM ACCIDENT - PROPERTY DAMAGE
17-0404866 17-05102 2302 COLLEGE AV Apr 28 2017 03:33:02:973PM AGENCY ASSIST
17-0404865 2503 SHORT DR Apr 28 2017 03:31:15:397PM BREAKING OR ENTERING
17-0404864 613 4TH AV Apr 28 2017 03:26:18:140PM DISTURBANCE
17-0404863 2200 PRINCE ST Apr 28 2017 03:23:19:977PM TRAFFIC PROBLEM-CONTROL
17-0404862 17-05097 2105 DAVE WARD DR Apr 28 2017 03:08:41:960PM FRAUD
17-0404861 1000 COUNTRY CLUB RD Apr 28 2017 03:04:25:663PM SUPPLEMENT REPORT CALL
17-0404860 17-05096 2128 CALDWELL ST Apr 28 2017 02:59:10:073PM ATTEMPT TO CONTACT
17-0404859 2513 W SIMMS ST Apr 28 2017 02:48:37:517PM ATTEMPT TO CONTACT
17-0404857 1423 DAVIS ST Apr 28 2017 02:41:30:680PM ATTEMPT TO CONTACT
17-0404855 17-05100 225 OAK ST Apr 28 2017 02:35:38:240PM TERRORISTIC THREATENING
17-0404854 256 OAK ST Apr 28 2017 02:34:56:487PM CHECKING PERSON
17-0404853 1106 GUM ST Apr 28 2017 02:31:43:620PM SUPPLEMENT REPORT CALL
17-0404852 17-05094 2360 SANDERS ST Apr 28 2017 02:16:20:277PM FOUND PROPERTY
17-0404850 17-05093 2445 CHRISTINA LN Apr 28 2017 02:00:03:113PM DISTURBANCE
17-0404849 17-05092 225 TILK RD Apr 28 2017 01:52:42:237PM DISTURBANCE
17-0404848 2690 DONAGHEY AV Apr 28 2017 01:52:32:363PM FRAUD
17-0404845 499 HUBBARD RD Apr 28 2017 01:27:33:857PM SUPPLEMENT REPORT CALL
17-0404843 2000 KEATHLEY DR Apr 28 2017 01:13:37:700PM ATTEMPT TO CONTACT
17-0404841 2835 PEBBLE BEACH DR Apr 28 2017 12:57:04:340PM VEHICLE TOW
17-0404840 2020 JOHNSTON AV Apr 28 2017 12:53:02:600PM PROPERTY DAMAGE
17-0404839 17-05091 1444 DAVE WARD DR Apr 28 2017 12:51:06:380PM ACCIDENT - PROPERTY DAMAGE
17-0404838 109 LOWER RIDGE RD Apr 28 2017 12:50:57:273PM TRAFFIC PROBLEM-CONTROL
17-0404835 114 EVE LN Apr 28 2017 12:36:11:880PM ATTEMPT TO CONTACT
17-0404833 235 FARRIS RD Apr 28 2017 12:22:12:243PM ALARM
17-0404832 1115 COLLEGE AV Apr 28 2017 12:02:41:517PM DISTURBANCE
17-0404829 2000 KEATHLEY DR Apr 28 2017 11:53:32:277AM CHECK ON THE WELFARE
17-0404827 1515 PYRAMID DR Apr 28 2017 11:47:45:230AM DOMESTIC DISTURBANCE
17-0404824 17-05089 1640 WARWICK HILLS LN Apr 28 2017 11:37:24:507AM THEFT OF VEHICLE
17-0404823 17-05090 409 CENTER ST Apr 28 2017 11:32:29:240AM HARASSMENT
17-0404818 375 E OAK ST Apr 28 2017 11:04:18:650AM CHECK ON THE WELFARE
17-0404817 136 OLIVER ST Apr 28 2017 10:52:41:327AM THEFT OF PROPERTY
17-0404816 17-05088 2590 DONAGHEY AV Apr 28 2017 10:50:49:787AM FRAUD
17-0404815 4675 OLD MORRILTON HWY Apr 28 2017 10:37:46:567AM HARASSMENT
17-0404813 1105 PRAIRIE ST Apr 28 2017 10:36:18:687AM ATTEMPT TO CONTACT
17-0404812 17-05086 2645 DONAGHEY AV Apr 28 2017 10:33:51:130AM CHECKING PERSON
17-0404810 545 SALEM RD Apr 28 2017 10:21:06:153AM FRAUD
17-0404808 1815 OLD MORRILTON HWY Apr 28 2017 10:18:38:713AM ALARM
17-0404802 1115 E OAK ST Apr 28 2017 09:45:35:933AM SUPPLEMENT REPORT CALL
17-0404797 17-05084 475 ROBINS ST Apr 28 2017 09:27:26:390AM ACCIDENT - PRIVATE PROPERTY
17-0404796 17-05085 2310 ROBINSON AV Apr 28 2017 09:25:17:100AM THEFT OF PROPERTY
17-0404795 17-05083 1025 S DONAGHEY AV Apr 28 2017 09:16:27:363AM SUPPLEMENT REPORT CALL
17-0404790 17-05081 600 SKYLINE DR Apr 28 2017 08:40:03:990AM ACCIDENT - PROPERTY DAMAGE
17-0404789 1265 BRUCE ST Apr 28 2017 08:31:30:173AM TRAFFIC PROBLEM-CONTROL
17-0404786 14 EVERGREEN DR Apr 28 2017 08:18:25:410AM ALARM
17-0404785 900 INGRAM ST Apr 28 2017 08:14:00:820AM STALLED VEHICLE
17-0404784 201 SKYLINE DR Apr 28 2017 08:12:19:677AM ALARM
17-0404782 2004 WASHINGTON AV Apr 28 2017 08:00:08:530AM CIVIL STAND BY
17-0404781 165 CHAPEL CREEK DR Apr 28 2017 07:53:59:397AM ALARM
17-0404780 17-05079 855 SALEM RD Apr 28 2017 07:38:24:570AM ACCIDENT - PRIVATE PROPERTY
17-0404779 17-05078 1425 S SALEM RD Apr 28 2017 07:37:48:427AM ACCIDENT - PRIVATE PROPERTY
17-0404778 100 SKYLINE DR Apr 28 2017 07:12:08:463AM ACCIDENT - PERSONAL INJURY
17-0404774 505 SALEM RD Apr 28 2017 05:38:25:110AM CHECKING BUILDING
17-0404773 505 SALEM RD Apr 28 2017 05:14:10:657AM ALARM
17-0404772 1835 OTT MEMORIAL BLVD Apr 28 2017 04:35:08:573AM CIVIL STAND BY
17-0404771 2611 COLLEGE AV Apr 28 2017 04:33:46:697AM AGENCY ASSIST
17-0404770 17-05077 510 S MITCHELL ST Apr 28 2017 03:16:20:630AM CHECKING PERSON
17-0404769 2275 MOIX BLVD Apr 28 2017 02:57:47:770AM SUSPICIOUS VEHICLE
17-0404768 2022 ERBACH ST Apr 28 2017 02:45:39:367AM LOUD NOISE-MUSIC
17-0404767 127 FARRIS RD Apr 28 2017 02:35:15:760AM CHECKING PERSON
17-0404763 17-05075 1835 OTT MEMORIAL BLVD Apr 28 2017 01:59:44:147AM DOMESTIC DISTURBANCE
17-0404762 201 SKYLINE DR Apr 28 2017 01:48:54:273AM ALARM
17-0404758 2405 WASHINGTON AV Apr 28 2017 01:31:30:493AM CHECK ON THE WELFARE
17-0404757 2235 E OAK ST Apr 28 2017 01:09:50:630AM ALARM
17-0404756 2430 SANDERS ST Apr 28 2017 01:00:54:627AM AGENCY ASSIST
17-0404754 17-05072 720 EAST GERMAN LN Apr 28 2017 12:55:10:493AM ROBBERY
17-0404752 17-05070 2890 DAVE WARD DR Apr 28 2017 12:24:03:530AM ACCIDENT - PERSONAL INJURY
17-0404751 17-05071 375 MONROE ST Apr 28 2017 12:23:21:597AM CHECKING VEHICLE
17-0404748 2012 MARTIN ST Apr 27 2017 11:57:49:447PM LOUD NOISE-MUSIC
17-0404747 260 SALEM RD Apr 27 2017 11:56:10:103PM CHECKING VEHICLE
17-0404746 Apr 27 2017 11:54:31:293PM CHECKING PERSON
17-0404745 235 FARRIS RD Apr 27 2017 11:51:33:587PM LOUD NOISE-MUSIC
17-0404741 17-05067 475 ROBINS ST Apr 27 2017 11:21:14:807PM DOMESTIC DISTURBANCE
17-0404739 17-05066 525 SOUTH GERMAN LN Apr 27 2017 11:11:10:200PM MISDEMEANOR WARRANT SERVICE
17-0404737 2125 HARKRIDER ST Apr 27 2017 11:00:46:830PM CHECKING VEHICLE
17-0404736 1075 HOGAN LN Apr 27 2017 10:57:39:520PM CHECKING PERSON
17-0404734 17-05065 1405 S DONAGHEY AV Apr 27 2017 10:53:50:793PM LOST CHILD-FOUND CHILD
17-0404732 1260 S AMITY RD Apr 27 2017 10:32:16:503PM FOUND PROPERTY
17-0404726 1155 SKYLINE DR Apr 27 2017 10:00:48:970PM SUSPICIOUS ACTIVITY
17-0404725 335 S MITCHELL ST Apr 27 2017 09:58:41:050PM SUSPICIOUS ACTIVITY
17-0404723 4095 PRINCE ST Apr 27 2017 09:56:04:173PM CHECKING PERSON
17-0404721 2300 HOGAN LN Apr 27 2017 09:47:08:103PM SUSPICIOUS VEHICLE
17-0404719 2125 HARKRIDER ST Apr 27 2017 09:31:28:087PM CHECKING PERSON
17-0404718 17-05064 1205 DAVE WARD DR Apr 27 2017 09:30:50:583PM ACCIDENT - PROPERTY DAMAGE
17-0404717 465 W BUSINESS DR Apr 27 2017 09:19:20:980PM ACCIDENT - PROPERTY DAMAGE
17-0404716 LOCUST AV Apr 27 2017 09:18:33:570PM CHECKING VEHICLE
17-0404713 17-05063 1200 DAVE WARD DR Apr 27 2017 09:05:04:903PM ACCIDENT - HIT AND RUN
17-0404712 835 S DONAGHEY AV Apr 27 2017 08:56:35:900PM AGENCY ASSIST
17-0404711 801 HOGAN LN Apr 27 2017 08:55:01:163PM TRAFFIC PROBLEM-CONTROL
17-0404710 1260 S AMITY RD Apr 27 2017 08:52:33:157PM DISTURBANCE
17-0404709 17-05062 1106 GUM ST Apr 27 2017 08:49:45:767PM MISSING PERSON
17-0404707 3900 DAVE WARD DR Apr 27 2017 08:33:44:443PM SUSPICIOUS VEHICLE
17-0404705 17-05061 400 WILLOW ST Apr 27 2017 08:05:05:600PM CHECKING PERSON
17-0404701 17-05060 605 SOUTH GERMAN LN Apr 27 2017 07:45:32:140PM DOMESTIC DISTURBANCE
17-0404700 150 E OAK ST Apr 27 2017 07:43:08:240PM CHECKING VEHICLE
17-0404696 1301 COLLEGE AV Apr 27 2017 07:28:56:487PM SUSPICIOUS ACTIVITY
17-0404695 1100 MILL ST Apr 27 2017 07:24:27:510PM INTOXICATED PERSON
17-0404693 2750 BOWMAN LN Apr 27 2017 07:18:32:520PM ATTEMPT TO CONTACT
17-0404692 17-05059 1030 SKYLINE DR Apr 27 2017 07:05:40:350PM LOST PROPERTY
17-0404691 2280 SANDERS ST Apr 27 2017 06:58:43:257PM ALARM - HOLD UP or PANIC
17-0404690 1156 FRONT ST Apr 27 2017 06:57:10:607PM ALARM
17-0404689 17-05058 1030 SKYLINE DR Apr 27 2017 06:51:54:170PM ACCIDENT - PROPERTY DAMAGE
17-0404687 800 S DONAGHEY AV Apr 27 2017 06:34:59:650PM CHECK ON THE WELFARE
17-0404686 1325 ROBINS ST Apr 27 2017 06:22:30:923PM TRESPASSING
17-0404685 1401 BRUCE ST Apr 27 2017 06:01:47:940PM DOMESTIC DISTURBANCE
17-0404684 1750 SWEETSPIRE DR Apr 27 2017 05:53:16:460PM ABANDONED VEHICLE
17-0404683 911 S HARKRIDER DR Apr 27 2017 05:51:20:273PM CHECK ON THE WELFARE
17-0404682 1651 HAIRSTON AV Apr 27 2017 05:45:06:560PM THEFT OF PROPERTY
17-0404681 1155 SKYLINE DR Apr 27 2017 05:31:38:963PM CIVIL MATTER
17-0404680 475 ROBINS ST Apr 27 2017 05:21:13:150PM DOMESTIC DISTURBANCE
17-0404678 607 FRONT ST Apr 27 2017 05:13:55:090PM CRIMINAL MISCHIEF
17-0404677 550 FRONT ST Apr 27 2017 05:05:40:533PM CRIMINAL MISCHIEF
17-0404676 17-05056 2625 DONAGHEY AV Apr 27 2017 05:03:04:650PM ACCIDENT - PRIVATE PROPERTY
17-0404674 1195 S HARKRIDER DR Apr 27 2017 04:58:45:783PM ATTEMPT TO CONTACT
17-0404673 3078 NAPA VALLEY DR Apr 27 2017 04:55:37:527PM ALARM
17-0404671 17-05057 2407 PARKWOOD DR Apr 27 2017 04:53:15:020PM ACCIDENT - PROPERTY DAMAGE
17-0404670 801 ELSINGER BLVD Apr 27 2017 04:50:58:667PM ATTEMPT TO CONTACT
17-0404669 2750 BOWMAN LN Apr 27 2017 04:47:42:920PM ATTEMPT TO CONTACT
17-0404667 17-05054 2415 DONAGHEY AV Apr 27 2017 04:40:12:297PM ACCIDENT - HIT AND RUN
17-0404666 6 STERNWHEEL DR Apr 27 2017 04:34:47:220PM DOMESTIC DISTURBANCE
17-0404665 17-05052 2302 COLLEGE AV Apr 27 2017 04:15:20:187PM ACCIDENT - PRIVATE PROPERTY
17-0404664 17-05053 2330 SANDERS ST Apr 27 2017 04:07:06:987PM THEFT OF SERVICES
17-0404663 17-05051 1315 NORTH ST Apr 27 2017 04:03:27:113PM NO CONTACT ORDER VIOLATION
17-0404662 43 ECHO LN Apr 27 2017 04:03:00:357PM AGENCY ASSIST
17-0404661 2275 MOIX BLVD Apr 27 2017 03:54:57:220PM RECKLESS DRIVER
17-0404660 17-05049 808 NORTH CREEK DR Apr 27 2017 03:48:45:850PM THEFT OF VEHICLE
17-0404659 17-05050 350 E OAK ST Apr 27 2017 03:41:40:600PM ACCIDENT - PROPERTY DAMAGE
17-0404657 800 S DONAGHEY AV Apr 27 2017 03:24:11:913PM RECKLESS DRIVER
17-0404655 17-05048 2320 WASHINGTON AV Apr 27 2017 03:12:00:643PM ACCIDENT - PRIVATE PROPERTY
17-0404653 540 UNITED DR Apr 27 2017 03:08:45:627PM ALARM - HOLD UP or PANIC
17-0404649 17-05047 285 S ASH ST Apr 27 2017 02:30:16:397PM AGENCY ASSIST
17-0404646 2152 PRINCE ST Apr 27 2017 02:00:46:970PM CHECK ON THE WELFARE
17-0404643 17-05045 1200 E DAVE WARD DR Apr 27 2017 01:53:30:663PM ACCIDENT - PROPERTY DAMAGE
17-0404641 1055 DAVE WARD DR Apr 27 2017 01:44:17:507PM STALLED VEHICLE
17-0404640 17-05044 1195 S HARKRIDER DR Apr 27 2017 01:39:05:430PM LOST PROPERTY
17-0404638 601 DAVE WARD DR Apr 27 2017 01:28:56:593PM RECKLESS DRIVER
17-0404635 406 WILLOW ST Apr 27 2017 01:22:17:150PM SUPPLEMENT REPORT CALL
17-0404634 1705 S SALEM RD Apr 27 2017 01:09:18:853PM VEHICLE TOW
17-0404628 450 E DAVE WARD DR Apr 27 2017 12:40:29:153PM STALLED VEHICLE
17-0404627 1405 S DONAGHEY AV Apr 27 2017 12:25:13:573PM PARKING VIOLATION
17-0404625 17-05043 222 E DAVE WARD DR Apr 27 2017 12:10:40:380PM ACCIDENT - PROPERTY DAMAGE
17-0404624 2905 DICKENS CIR Apr 27 2017 12:09:17:817PM ALARM
17-0404623 855 SOUTH GERMAN LN Apr 27 2017 12:04:30:250PM ARMED SUBJECT
17-0404622 17-05042 500 E OAK ST Apr 27 2017 12:03:59:973PM ACCIDENT - HIT AND RUN
17-0404621 2390 VICTORY LN Apr 27 2017 12:01:57:617PM TERRORISTIC THREATENING
17-0404618 1401 SPRUCE ST Apr 27 2017 11:50:34:357AM CHECK ON THE WELFARE
17-0404617 801 SOUTH GERMAN LN Apr 27 2017 11:45:23:323AM SERVING SUBPOENA
17-0404615 17-05041 1003 MUSEUM RD Apr 27 2017 11:29:58:903AM THEFT OF PROPERTY
17-0404614 975 E OAK ST Apr 27 2017 11:27:05:190AM CIVIL STAND BY
17-0404610 17-05039 801 ELSINGER BLVD Apr 27 2017 10:58:55:700AM SHOPLIFTING
17-0404609 17-05040 827 HOGAN LN Apr 27 2017 10:58:45:870AM ACCIDENT - PRIVATE PROPERTY
17-0404607 17-05038 2200 MEADOWLAKE RD Apr 27 2017 10:41:56:450AM THEFT OF PROPERTY
17-0404606 301 E OAK ST Apr 27 2017 10:36:38:510AM ATTEMPT TO CONTACT
17-0404598 17-05037 2050 DAVE WARD DR Apr 27 2017 10:09:53:847AM SHOPLIFTING
17-0404596 17-05036 2302 COLLEGE AV Apr 27 2017 09:59:20:947AM DISTURBANCE
17-0404594 17-05035 202 DONAGHEY AV Apr 27 2017 09:50:26:490AM ACCIDENT - HIT AND RUN
17-0404582 1775 OLD MORRILTON HWY Apr 27 2017 09:02:40:840AM CHECK ON THE WELFARE
17-0404578 1401 DONAGHEY AV Apr 27 2017 08:44:05:713AM SUPPLEMENT REPORT CALL
17-0404577 2100 CALDWELL ST Apr 27 2017 08:41:24:063AM DOMESTIC DISTURBANCE
17-0404575 1105 PRAIRIE ST Apr 27 2017 08:28:12:597AM ATTEMPT TO CONTACT
17-0404574 17-05033 3501 COLLEGE AV Apr 27 2017 08:23:31:717AM ABUSE
17-0404570 17-05031 2200 PRINCE ST Apr 27 2017 08:02:33:040AM ACCIDENT - PERSONAL INJURY
17-0404568 17-05032 1401 DONAGHEY AV Apr 27 2017 07:57:15:763AM ACCIDENT - PROPERTY DAMAGE
17-0404564 17-05030 2150 E OAK ST Apr 27 2017 07:42:39:780AM ACCIDENT - PROPERTY DAMAGE
17-0404563 2100 CALDWELL ST Apr 27 2017 07:42:20:047AM CHECK ON THE WELFARE
17-0404561 17-05029 2015 BELLINGRATH GARDENS Apr 27 2017 07:35:17:320AM BREAKING OR ENTERING
17-0404560 1475 HOGAN LN Apr 27 2017 07:32:21:330AM ALARM
17-0404559 235 EAST GERMAN LN Apr 27 2017 07:30:19:443AM ALARM
17-0404558 5150 JOHN W. ALLISON RD Apr 27 2017 07:27:53:683AM BURGLARY
17-0404557 1640 PIKE RIDGE RD Apr 27 2017 07:22:36:300AM 911 HANGUP CALL
17-0404556 17-05034 3725 COLLEGE AV Apr 27 2017 07:19:55:887AM CRIMINAL MISCHIEF
17-0404555 1500 E OAK ST Apr 27 2017 07:16:57:923AM CRIMINAL MISCHIEF
17-0404554 301 E OAK ST Apr 27 2017 07:10:34:890AM ACCIDENT - PROPERTY DAMAGE
17-0404553 17-05028 301 E OAK ST Apr 27 2017 07:10:30:410AM ACCIDENT - PERSONAL INJURY
17-0404550 100 SKYLINE DR Apr 27 2017 06:37:40:447AM RECKLESS DRIVER
17-0404549 Apr 27 2017 06:31:00:177AM ATTEMPT TO CONTACT
17-0404548 525 SKYLINE DR Apr 27 2017 05:53:23:560AM AGENCY ASSIST
17-0404545 2840 DAVE WARD DR Apr 27 2017 05:10:42:007AM LOUD NOISE-MUSIC
17-0404544 1620 MIDDLE RD Apr 27 2017 04:43:18:307AM REPOSSESSION
17-0404539 2420 MARIE DR Apr 27 2017 02:12:27:480AM OPEN DOOR/WINDOW/FENCE
17-0404538 130 6TH ST Apr 27 2017 01:35:10:720AM PROWLER
17-0404536 2015 RICH SMITH LN Apr 27 2017 01:19:30:440AM BURGLARY
17-0404535 867 FENDLEY DR Apr 27 2017 01:19:04:067AM DOMESTIC DISTURBANCE
17-0404532 130 HARKRIDER ST Apr 27 2017 12:30:54:190AM AGENCY ASSIST
17-0404530 5150 JOHN W. ALLISON RD Apr 27 2017 12:25:03:657AM ALARM
17-0404529 605 SOUTH GERMAN LN Apr 27 2017 12:20:52:713AM CHECKING PERSON
17-0404528 500 SOUTH GERMAN LN Apr 27 2017 12:18:19:797AM CHECKING PERSON
17-0404527 1601 HOGAN LN Apr 27 2017 12:10:47:127AM LOUD NOISE-MUSIC
17-0404526 1155 SKYLINE DR Apr 26 2017 11:52:16:237PM CHECKING PERSON
17-0404525 17-05023 2125 HARKRIDER ST Apr 26 2017 11:38:33:297PM INTOXICATED PERSON
17-0404523 475 ROBINS ST Apr 26 2017 11:23:51:443PM SUPPLEMENT REPORT CALL
17-0404521 2125 HARKRIDER ST Apr 26 2017 11:15:06:593PM SUSPICIOUS PERSON
17-0404520 2535 DONAGHEY AV Apr 26 2017 11:14:01:260PM PROWLER
17-0404519 375 E OAK ST Apr 26 2017 10:55:50:143PM ATTEMPT TO CONTACT
17-0404518 816 HOGAN LN Apr 26 2017 10:55:30:490PM ALARM
17-0404515 260 SALEM RD Apr 26 2017 10:37:05:033PM CHECKING VEHICLE
17-0404514 2890 DAVE WARD DR Apr 26 2017 10:22:08:880PM CHECKING VEHICLE
17-0404512 2730 DAVE WARD DR Apr 26 2017 10:11:04:367PM DOMESTIC DISTURBANCE
17-0404511 375 E OAK ST Apr 26 2017 10:04:12:777PM UNKNOWN TROUBLE
17-0404510 17-05021 323 S ASH ST Apr 26 2017 09:56:08:497PM TRESPASSING
17-0404509 461 ELSINGER BLVD Apr 26 2017 09:48:52:570PM ALARM
17-0404508 17-05020 1017 WATKINS ST Apr 26 2017 09:42:27:863PM HARASSING COMMUNICATIONS
17-0404507 2360 SANDERS ST Apr 26 2017 09:39:16:000PM TRESPASSING
17-0404505 1390 OLD MORRILTON HWY Apr 26 2017 09:20:08:140PM CHECKING PERSON
17-0404504 323 S ASH ST Apr 26 2017 09:10:12:153PM TRESPASSING
17-0404502 1155 SKYLINE DR Apr 26 2017 08:48:24:903PM CIVIL MATTER
17-0404501 5150 JOHN W. ALLISON RD Apr 26 2017 08:41:04:200PM ATTEMPT TO CONTACT
17-0404500 1745 ARDEN LN Apr 26 2017 08:37:24:293PM ALARM
17-0404499 29 BLAKE LN Apr 26 2017 08:31:21:347PM TRESPASSING
17-0404498 1104 FRONT ST Apr 26 2017 08:28:43:910PM DOMESTIC DISTURBANCE
17-0404496 54 MIDDLE RD Apr 26 2017 08:25:07:383PM TRAFFIC PROBLEM-CONTROL
17-0404495 5150 JOHN W. ALLISON RD Apr 26 2017 08:24:10:630PM ALARM
17-0404493 1430 OLD MORRILTON HWY Apr 26 2017 08:15:37:163PM CHECKING PERSON
17-0404490 17-05018 3140 VIRGINIA ST Apr 26 2017 07:44:29:900PM NO CONTACT ORDER VIOLATION
17-0404487 17-05017 1485 OLD MORRILTON HWY Apr 26 2017 07:37:39:333PM CHECKING PERSON
17-0404485 500 AMITY RD Apr 26 2017 07:19:45:467PM ALARM
17-0404484 1225 CUMULUS DR Apr 26 2017 07:08:25:490PM DOMESTIC DISTURBANCE
17-0404483 17-05014 102 OAK ST Apr 26 2017 07:02:45:197PM DISTURBANCE
17-0404482 17-05015 475 ROBINS ST Apr 26 2017 07:00:46:340PM SHOTS FIRED
17-0404481 17-05016 2905 PEBBLE BEACH DR Apr 26 2017 06:59:01:907PM ACCIDENT - PRIVATE PROPERTY
17-0404480 1220 CLARENCE DR Apr 26 2017 06:47:22:890PM OPEN DOOR/WINDOW/FENCE
17-0404479 475 ROBINS ST Apr 26 2017 06:41:23:057PM TERRORISTIC THREATENING
17-0404478 17-05012 880 ARTIS LN Apr 26 2017 06:18:36:590PM ACCIDENT - PRIVATE PROPERTY
17-0404477 2050 DAVE WARD DR Apr 26 2017 06:14:29:620PM ACCIDENT - PRIVATE PROPERTY
17-0404476 3150 PEBBLE BEACH DR Apr 26 2017 06:09:49:890PM DOMESTIC DISTURBANCE
17-0404475 17-05011 300 FARRIS RD Apr 26 2017 05:55:02:423PM ACCIDENT - PROPERTY DAMAGE
17-0404473 2901 COLLEGE AV Apr 26 2017 05:02:39:017PM STALLED VEHICLE
17-0404471 5135 LOST CANYON DR Apr 26 2017 04:58:05:657PM DOMESTIC DISTURBANCE
17-0404468 3700 DAVE WARD DR Apr 26 2017 04:43:22:490PM RECKLESS DRIVER
17-0404467 17-05009 101 OAK ST Apr 26 2017 04:41:53:380PM ACCIDENT - HIT AND RUN
17-0404466 2417 JESSICA DR Apr 26 2017 04:41:03:210PM SUPPLEMENT REPORT CALL
17-0404465 17-05008 499 HUBBARD RD Apr 26 2017 04:33:07:877PM ACCIDENT - HIT AND RUN
17-0404464 17-05005 1155 SKYLINE DR Apr 26 2017 04:28:18:417PM LOST PROPERTY
17-0404463 17-05007 1325 OLD MORRILTON HWY Apr 26 2017 04:26:58:840PM ACCIDENT - PERSONAL INJURY
17-0404462 17-05006 1100 FLEMING ST Apr 26 2017 04:21:23:633PM ACCIDENT - PROPERTY DAMAGE
17-0404461 2125 HARKRIDER ST Apr 26 2017 04:12:45:260PM SUSPICIOUS PERSON
17-0404460 2275 MOIX BLVD Apr 26 2017 04:11:59:770PM SUSPICIOUS PERSON
17-0404459 2417 JESSICA DR Apr 26 2017 04:02:59:950PM SUPPLEMENT REPORT CALL
17-0404458 1901 E DAVE WARD DR Apr 26 2017 03:59:27:410PM TRAFFIC LIGHT PROBLEM
17-0404457 601 DAVE WARD DR Apr 26 2017 03:36:47:237PM CHECK ON THE WELFARE
17-0404456 17-05004 2165 WILMINGTON DR Apr 26 2017 03:34:54:137PM CRIMINAL MISCHIEF
17-0404455 2060 MASSEE GARDENS Apr 26 2017 03:29:57:780PM ATTEMPT TO CONTACT
17-0404454 930 WINGATE DR Apr 26 2017 03:29:05:087PM SUPPLEMENT REPORT CALL
17-0404453 15 MACARTHUR DR Apr 26 2017 03:16:15:130PM DISTURBANCE
17-0404452 1100 E DAVE WARD DR Apr 26 2017 03:04:13:143PM STALLED VEHICLE
17-0404451 17-05003 2730 DAVE WARD DR Apr 26 2017 03:00:39:527PM THEFT OF PROPERTY
17-0404447 34 MALLARD LN Apr 26 2017 02:11:21:580PM ALARM
17-0404446 213 LOCUST AV Apr 26 2017 02:10:44:870PM ALARM
17-0404445 1061 MARKHAM ST Apr 26 2017 01:56:53:670PM DISTURBANCE
17-0404444 2480 SANDERS ST Apr 26 2017 01:47:24:823PM TRESPASSING
17-0404442 17-05001 1950 HARKRIDER ST Apr 26 2017 01:35:37:650PM BREAKING OR ENTERING
17-0404440 17-04999 2417 JESSICA DR Apr 26 2017 01:21:12:570PM THEFT OF PROPERTY
17-0404439 17-05000 1570 E OAK ST Apr 26 2017 01:20:20:017PM DISTURBANCE
17-0404438 1901 E OAK ST Apr 26 2017 12:47:00:540PM RECKLESS DRIVER
17-0404437 1600 WINTERBROOK DR Apr 26 2017 12:42:21:833PM ALARM
17-0404435 1615 HIGHPOINT DR Apr 26 2017 12:24:18:433PM ALARM
17-0404434 17-04998 1001 HARKRIDER ST Apr 26 2017 12:01:37:897PM ACCIDENT - PROPERTY DAMAGE
17-0404431 2407 JESSICA DR Apr 26 2017 11:53:21:280AM BURGLARY
17-0404428 17-04997 43 WHITE OAK DR Apr 26 2017 11:39:03:507AM BURGLARY
17-0404427 17-04996 1001 MCNUTT RD Apr 26 2017 11:34:24:157AM THEFT OF PROPERTY
17-0404425 2400 BRUCE ST Apr 26 2017 11:17:15:020AM ANIMAL BITE
17-0404424 823 OAK ST Apr 26 2017 11:14:42:367AM ATTEMPT TO CONTACT
17-0404423 2425 GRUMMER LN Apr 26 2017 11:12:14:020AM TERRORISTIC THREATENING
17-0404421 2100 DAVE WARD DR Apr 26 2017 10:51:31:367AM ATTEMPT TO CONTACT
17-0404419 17-04995 1610 PRINCE ST Apr 26 2017 10:32:29:997AM FOUND PROPERTY
17-0404417 1635 JOHN BRYANT DR Apr 26 2017 10:27:51:010AM ALARM - HOLD UP or PANIC
17-0404415 3503 JAMES CT Apr 26 2017 10:14:58:890AM ALARM
17-0404413 2840 DAVE WARD DR Apr 26 2017 10:07:09:697AM CHECK ON THE WELFARE
17-0404407 3100 IRBY DR Apr 26 2017 09:50:25:240AM VEHICLE TOW
17-0404405 3685 IRBY DR Apr 26 2017 09:43:04:820AM HARASSMENT
17-0404402 1555 EXCHANGE AV Apr 26 2017 09:08:42:653AM SERVING SUBPOENA
17-0404401 1615 E OAK ST Apr 26 2017 09:07:26:570AM SUSPICIOUS PERSON
17-0404398 17-04992 1500 E OAK ST Apr 26 2017 08:29:42:047AM CRIMINAL MISCHIEF
17-0404389 335 VINTAGE CV Apr 26 2017 07:02:56:197AM DOMESTIC DISTURBANCE
17-0404388 17-04991 150 E OAK ST Apr 26 2017 06:56:38:750AM SHOPLIFTING
17-0404387 409 ANGUS ST Apr 26 2017 05:55:50:400AM AGENCY ASSIST
17-0404384 2965 ASHLEY DR Apr 26 2017 04:59:33:167AM ALARM
17-0404383 2125 HARKRIDER ST Apr 26 2017 04:16:53:103AM CHECKING PERSON
17-0404379 4645 BALMAZ ST Apr 26 2017 03:05:18:877AM CHECKING VEHICLE
17-0404378 1601 HOGAN LN Apr 26 2017 02:53:02:600AM CHECKING VEHICLE
17-0404377 924 MILL ST Apr 26 2017 01:41:50:910AM DOMESTIC DISTURBANCE
17-0404376 17-04990 207 WILLOW ST Apr 26 2017 01:23:16:507AM BATTERY REPORT
17-0404375 835 S DONAGHEY AV Apr 26 2017 12:41:30:003AM LOUD NOISE-MUSIC
17-0404374 1620 MIDDLE RD Apr 26 2017 12:36:14:870AM CHECKING VEHICLE
17-0404373 3430 IRBY DR Apr 26 2017 12:26:02:183AM BURGLARY
17-0404371 520 BRUCE ST Apr 26 2017 12:10:55:600AM REPOSSESSION
17-0404368 2730 DAVE WARD DR Apr 25 2017 11:16:42:007PM DOMESTIC DISTURBANCE
17-0404367 201 SKYLINE DR Apr 25 2017 11:09:14:850PM SUSPICIOUS ACTIVITY
17-0404362 675 AMITY RD Apr 25 2017 10:55:54:710PM DISTURBANCE
17-0404357 17-04989 1706 HARDY ST Apr 25 2017 09:45:56:887PM HARASSMENT
17-0404355 3710 NOBLETT DR Apr 25 2017 09:40:39:053PM MISSING PERSON
17-0404354 1835 TYLER ST Apr 25 2017 09:34:56:207PM DISTURBANCE
17-0404353 2102 WEST ST Apr 25 2017 09:32:26:797PM SHOTS FIRED
17-0404349 2710 PRINCE ST Apr 25 2017 09:09:09:937PM CHECK ON THE WELFARE
17-0404347 2745 CARL STUART ST Apr 25 2017 09:05:56:280PM LOG VEHICLE
17-0404344 3294 NUTTERS CHAPEL RD Apr 25 2017 08:40:43:850PM SUSPICIOUS ACTIVITY
17-0404340 813 OAK ST Apr 25 2017 08:10:31:090PM CHECK ON THE WELFARE
17-0404339 1405 S DONAGHEY AV Apr 25 2017 07:57:28:977PM ABUSE
17-0404335 1700 APPALACHAIN DR Apr 25 2017 07:20:33:690PM CIVIL STAND BY
17-0404334 2465 SANDERS ST Apr 25 2017 07:09:36:853PM ALARM - HOLD UP or PANIC
17-0404333 1275 EXCHANGE AV Apr 25 2017 06:51:16:180PM TRAFFIC PROBLEM-CONTROL
17-0404332 501 HOGAN LN Apr 25 2017 06:34:18:957PM SUSPICIOUS VEHICLE
17-0404331 17-04984 100 FARRIS RD Apr 25 2017 06:27:36:900PM ACCIDENT - PERSONAL INJURY
17-0404330 2500 NUTTERS CHAPEL RD Apr 25 2017 06:27:36:317PM ACCIDENT - PERSONAL INJURY
17-0404329 2101 TYLER ST Apr 25 2017 06:14:14:757PM CRIMINAL MISCHIEF
17-0404328 17-04985 1313 MCNUTT RD Apr 25 2017 06:08:00:060PM BREAKING OR ENTERING
17-0404327 1810 HOGAN LN Apr 25 2017 05:47:51:900PM CHECK ON THE WELFARE
17-0404326 335 HOGAN LN Apr 25 2017 05:29:59:090PM ALARM
17-0404325 103 E OAK ST Apr 25 2017 05:25:16:953PM HARASSMENT
17-0404324 450 SKYLINE DR Apr 25 2017 05:24:25:047PM TRAFFIC PROBLEM-CONTROL
17-0404322 17-04982 2208 ARKANSAS AV Apr 25 2017 05:15:21:757PM THEFT OF PROPERTY
17-0404320 500 MERRIMAN ST Apr 25 2017 05:14:18:463PM ACCIDENT - PROPERTY DAMAGE
17-0404319 590 EAST GERMAN LN Apr 25 2017 05:08:34:683PM CRIMINAL MISCHIEF
17-0404318 1105 PRAIRIE ST Apr 25 2017 05:07:08:223PM SERVING SUBPOENA
17-0404316 2206 LOOKOUT AV Apr 25 2017 04:33:42:687PM ATTEMPT TO CONTACT
17-0404315 2110 SPRUCEWOOD DR Apr 25 2017 04:31:57:900PM CHECK ON THE WELFARE
17-0404314 814 E OAK ST Apr 25 2017 04:30:47:603PM HARASSING COMMUNICATIONS
17-0404311 2510 T J DR Apr 25 2017 03:58:30:357PM ALARM
17-0404310 2150 RAINWOOD AV Apr 25 2017 03:55:01:013PM SUPPLEMENT REPORT CALL
17-0404309 835 S DONAGHEY AV Apr 25 2017 03:54:34:043PM CIVIL STAND BY
17-0404308 17-04980 2300 PRINCE ST Apr 25 2017 03:46:42:140PM ACCIDENT - PRIVATE PROPERTY
17-0404307 1705 S SALEM RD Apr 25 2017 03:36:06:950PM ALARM
17-0404306 1420 HARDY ST Apr 25 2017 03:29:51:753PM CHECK ON THE WELFARE
17-0404300 1230 CLIFTON ST Apr 25 2017 03:01:02:017PM ATTEMPT TO CONTACT
17-0404295 215 MILL ST Apr 25 2017 02:47:49:870PM AGENCY ASSIST
17-0404293 3200 DAVE WARD DR Apr 25 2017 02:45:04:200PM TRAFFIC PROBLEM-CONTROL
17-0404292 1500 HARKRIDER ST Apr 25 2017 02:44:23:090PM STALLED VEHICLE
17-0404290 17-04979 1305 DAVE WARD DR Apr 25 2017 02:22:19:497PM ACCIDENT - PRIVATE PROPERTY
17-0404289 1701 MARILYN DR Apr 25 2017 02:21:51:747PM ALARM
17-0404288 17-04977 707 ROBINS ST Apr 25 2017 02:14:38:587PM AGENCY ASSIST
17-0404283 17-04974 375 E OAK ST Apr 25 2017 01:38:47:503PM FOUND PROPERTY
17-0404282 1699 QUAIL CREEK DR Apr 25 2017 01:38:37:660PM STALLED VEHICLE
17-0404281 2550 PRINCE ST Apr 25 2017 01:18:32:260PM SERVING SUBPOENA
17-0404280 17-04968 2101 COLLEGE AV Apr 25 2017 01:04:08:517PM ACCIDENT - PROPERTY DAMAGE
17-0404276 17-04972 899 ELSINGER BLVD Apr 25 2017 12:21:58:443PM ACCIDENT - HIT AND RUN
17-0404275 17-04961 1209 E OAK ST Apr 25 2017 12:15:47:690PM ACCIDENT - HIT AND RUN
17-0404274 101 HARKRIDER ST Apr 25 2017 12:08:48:047PM ATTEMPT TO CONTACT
17-0404273 17-04960 1380 JOYNER DR Apr 25 2017 12:03:45:540PM HARASSMENT
17-0404270 2407 JESSICA DR Apr 25 2017 12:00:04:090PM BURGLARY
17-0404268 2880 CARL STUART ST Apr 25 2017 11:47:06:037AM ALARM - HOLD UP or PANIC
17-0404267 1230 CLIFTON ST Apr 25 2017 11:46:47:703AM ATTEMPT TO CONTACT
17-0404263 1601 HOGAN LN Apr 25 2017 11:31:14:647AM VEHICLE TOW
17-0404262 480 EXCHANGE AV Apr 25 2017 11:21:53:953AM ATTEMPT TO CONTACT
17-0404261 17-04957 602 2ND ST Apr 25 2017 11:17:55:263AM NO CONTACT ORDER VIOLATION
17-0404260 1230 CLIFTON ST Apr 25 2017 10:58:19:087AM THEFT OF PROPERTY
17-0404259 900 INGRAM ST Apr 25 2017 10:48:31:417AM CHECK ON THE WELFARE
17-0404256 Apr 25 2017 10:40:07:997AM ATTEMPT TO CONTACT
17-0404255 1002 E OAK ST Apr 25 2017 10:35:42:147AM ATTEMPT TO CONTACT
17-0404254 305 PICKWICKET DR Apr 25 2017 10:33:14:460AM SERVING SUBPOENA
17-0404252 655 DAVE WARD DR Apr 25 2017 10:24:40:253AM 911 HANGUP CALL
17-0404248 17-04948 855 SALEM RD Apr 25 2017 09:33:25:923AM ACCIDENT - PRIVATE PROPERTY
17-0404245 270 E SKYLINE DR Apr 25 2017 09:12:42:553AM ATTEMPT TO CONTACT
17-0404242 17-04945 600 SKYLINE DR Apr 25 2017 08:54:16:267AM ACCIDENT - PROPERTY DAMAGE
17-0404241 22 ROLLING HILLS DR Apr 25 2017 08:53:35:230AM ALARM
17-0404238 2535 DONAGHEY AV Apr 25 2017 08:44:40:363AM SERVING SUBPOENA
17-0404237 800 S DONAGHEY AV Apr 25 2017 08:34:28:600AM SUPPLEMENT REPORT CALL
17-0404236 1618 DAVIS ST Apr 25 2017 08:25:51:290AM SERVING SUBPOENA
17-0404235 17-04944 1209 INGRAM ST Apr 25 2017 08:20:40:633AM FRAUD
17-0404234 260 SALEM RD Apr 25 2017 08:13:27:773AM SUPPLEMENT REPORT CALL
17-0404232 17-04942 2002 PRINCE ST Apr 25 2017 08:00:46:020AM ACCIDENT - PROPERTY DAMAGE
17-0404231 17-04943 2270 MEADOWLAKE RD Apr 25 2017 07:52:02:423AM BREAKING OR ENTERING
17-0404230 1601 S DONAGHEY AV Apr 25 2017 07:49:50:670AM MISSING PERSON
17-0404227 2001 SALEM RD Apr 25 2017 07:25:31:360AM STALLED VEHICLE
17-0404226 2100 SALEM RD Apr 25 2017 07:22:08:580AM STALLED VEHICLE
17-0404223 17-04941 2500 DAVE WARD DR Apr 25 2017 06:38:58:457AM ACCIDENT - PROPERTY DAMAGE
17-0404222 3500 DEERBROOK DR Apr 25 2017 06:27:09:663AM SUSPICIOUS VEHICLE
17-0404220 17-04938 930 WINGATE DR Apr 25 2017 04:00:58:487AM CRIMINAL MISCHIEF
17-0404219 1120 EAST GERMAN LN Apr 25 2017 03:28:06:137AM ALARM
17-0404218 1102 SPENCER ST Apr 25 2017 03:27:31:107AM OPEN DOOR/WINDOW/FENCE
17-0404217 620 ELSINGER BLVD Apr 25 2017 03:08:36:050AM ALARM
17-0404216 1617 TYLER ST Apr 25 2017 03:05:12:130AM CHECKING VEHICLE
17-0404214 1909 HOGAN LN Apr 25 2017 01:48:32:623AM REPOSSESSION
17-0404213 2465 SANDERS ST Apr 25 2017 01:46:32:193AM CHECKING PERSON
17-0404210 2535 DONAGHEY AV Apr 25 2017 12:34:32:353AM DOMESTIC DISTURBANCE
17-0404208 620 ELSINGER BLVD Apr 24 2017 11:38:48:687PM ALARM
17-0404207 3700 JEANNA DR Apr 24 2017 11:27:04:907PM SUSPICIOUS PERSON
17-0404206 1555 EXCHANGE AV Apr 24 2017 11:05:36:947PM DISTURBANCE
17-0404205 5200 JOHN W. ALLISON RD Apr 24 2017 11:00:12:333PM CHECKING VEHICLE
17-0404201 1501 DOGWOOD TRL Apr 24 2017 10:03:04:400PM ATTEMPT TO CONTACT
17-0404199 2480 SANDERS ST Apr 24 2017 09:24:22:743PM TRESPASSING
17-0404196 17-04937 1230 CLIFTON ST Apr 24 2017 09:04:23:600PM BURGLARY
17-0404194 2105 DAVE WARD DR Apr 24 2017 09:01:47:963PM ALARM - BANK
17-0404190 1155 SKYLINE DR Apr 24 2017 08:36:15:483PM CHECK ON THE WELFARE
17-0404189 500 SOUTH GERMAN LN Apr 24 2017 08:35:46:733PM MISDEMEANOR WARRANT SERVICE
17-0404188 2295 NATURE TRL Apr 24 2017 07:55:49:173PM CHECK ON THE WELFARE
17-0404187 270 S ASH ST Apr 24 2017 07:51:45:043PM DISTURBANCE
17-0404186 17-04935 475 ROBINS ST Apr 24 2017 07:33:57:293PM THEFT OF VEHICLE
17-0404185 17-04932 475 ROBINS ST Apr 24 2017 07:28:25:013PM BURGLARY
17-0404184 17-04936 1325 ROBINS ST Apr 24 2017 07:24:17:137PM TERRORISTIC THREATENING
17-0404182 17-04933 500 SOUTH GERMAN LN Apr 24 2017 07:15:02:390PM MISDEMEANOR WARRANT SERVICE
17-0404181 1155 SKYLINE DR Apr 24 2017 07:12:22:270PM CIVIL MATTER
17-0404180 101 OAK ST Apr 24 2017 07:12:06:000PM LOITERING
17-0404179 17-04931 600 5TH AV Apr 24 2017 06:51:25:947PM ROBBERY
17-0404178 17-04930 2900 PRINCE ST Apr 24 2017 06:49:37:913PM ACCIDENT - PROPERTY DAMAGE
17-0404176 1700 APPALACHAIN DR Apr 24 2017 06:36:52:753PM DOMESTIC DISTURBANCE
17-0404175 1154 DONAGHEY AV Apr 24 2017 06:33:42:633PM CRIMINAL MISCHIEF
17-0404174 127 LOCUST AV Apr 24 2017 06:32:09:210PM CHECKING VEHICLE
17-0404173 14 COVEWOOD DR Apr 24 2017 06:29:31:440PM PROWLER
17-0404172 244 OAK ST Apr 24 2017 06:27:23:757PM ALARM - HOLD UP or PANIC
17-0404171 2400 MARKET PLAZA DR Apr 24 2017 06:21:36:003PM DOMESTIC DISTURBANCE
17-0404170 2300 HOGAN LN Apr 24 2017 06:07:21:733PM SUSPICIOUS PERSON
17-0404169 17-04928 800 S DONAGHEY AV Apr 24 2017 06:06:24:387PM ACCIDENT - PROPERTY DAMAGE
17-0404168 2400 MARKET PLAZA DR Apr 24 2017 05:59:41:783PM HARASSMENT
17-0404167 800 WALNUT ST Apr 24 2017 05:54:44:597PM ALARM - HOLD UP or PANIC
17-0404166 17-04934 1970 E OAK ST Apr 24 2017 05:47:58:817PM THEFT OF PROPERTY
17-0404165 23 TIMOTHY LN Apr 24 2017 05:44:31:440PM DOMESTIC DISTURBANCE
17-0404164 1500 HARKRIDER ST Apr 24 2017 05:37:39:093PM HARASSMENT
17-0404163 1903 HOGAN LN Apr 24 2017 05:33:32:730PM DOMESTIC DISTURBANCE
17-0404162 1720 OLD MORRILTON HWY Apr 24 2017 05:25:09:063PM ACCIDENT - PRIVATE PROPERTY
17-0404161 17-04927 500 SOUTH GERMAN LN Apr 24 2017 05:24:15:630PM MISDEMEANOR WARRANT SERVICE
17-0404160 220 E OAK ST Apr 24 2017 05:22:23:137PM ATTEMPT TO CONTACT
17-0404159 17-04926 1500 HARKRIDER ST Apr 24 2017 05:02:09:400PM ACCIDENT - PERSONAL INJURY
17-0404158 1306 COLLIER DR Apr 24 2017 04:53:55:010PM DOMESTIC DISTURBANCE
17-0404157 828 CHESTNUT ST Apr 24 2017 04:43:45:627PM OPEN DOOR/WINDOW/FENCE
17-0404156 17-04922 1209 E OAK ST Apr 24 2017 04:32:36:810PM ACCIDENT - PROPERTY DAMAGE
17-0404155 17-04925 1700 APPALACHAIN DR Apr 24 2017 04:29:18:447PM DOMESTIC DISTURBANCE
17-0404154 2300 PRINCE ST Apr 24 2017 04:26:38:987PM MISSING PERSON
17-0404151 2300 PRINCE ST Apr 24 2017 04:21:09:537PM THEFT OF PROPERTY
17-0404150 2465 EIGHTEEN LP Apr 24 2017 04:21:05:047PM SUSPICIOUS PERSON
17-0404149 17-04921 1485 BLACKWOOD CV Apr 24 2017 04:18:17:303PM FOUND PROPERTY
17-0404148 2400 MARKET PLAZA DR Apr 24 2017 04:18:12:530PM ATTEMPT TO CONTACT
17-0404146 17-04924 2255 BLANEY HILL RD Apr 24 2017 04:13:52:180PM FOUND PROPERTY
17-0404145 513 2ND ST Apr 24 2017 04:12:16:677PM RUNAWAY
17-0404143 2211 LOOKOUT AV Apr 24 2017 04:02:39:413PM HARASSMENT
17-0404142 512 1ST AV Apr 24 2017 04:02:22:223PM RUNAWAY
17-0404141 17-04920 3910 NEWCASTLE DR Apr 24 2017 04:00:03:763PM NO CONTACT ORDER VIOLATION
17-0404140 17-04923 707 ROBINS ST Apr 24 2017 03:58:43:393PM THEFT OF PROPERTY
17-0404139 504 E OAK ST Apr 24 2017 03:58:31:897PM CHECK ON THE WELFARE
17-0404138 900 S AMITY RD Apr 24 2017 03:57:05:967PM STALLED VEHICLE
17-0404135 1405 ROBINS ST Apr 24 2017 03:47:12:233PM THEFT OF PROPERTY
17-0404133 1503 HAIRSTON PL Apr 24 2017 03:42:05:293PM ATTEMPT TO CONTACT
17-0404132 823 OAK ST Apr 24 2017 03:35:08:643PM CITIZEN ASSIST
17-0404128 4500 THOMPSON ST Apr 24 2017 03:14:55:777PM CRIMINAL MISCHIEF
17-0404127 2600 FLORENCE MATTISON DR Apr 24 2017 03:11:19:783PM TRAFFIC PROBLEM-CONTROL
17-0404126 17-04919 1145 S AMITY RD Apr 24 2017 02:56:27:893PM THEFT OF PROPERTY
17-0404123 915 FRONT ST Apr 24 2017 02:41:08:497PM ATTEMPT TO CONTACT
17-0404117 17-04917 150 E OAK ST Apr 24 2017 02:25:10:647PM ACCIDENT - PRIVATE PROPERTY
17-0404114 150 E SIEBENMORGEN RD Apr 24 2017 02:01:04:143PM ATTEMPT TO CONTACT
17-0404113 17-04916 1306 S DONAGHEY AV Apr 24 2017 01:41:44:797PM THEFT OF PROPERTY
17-0404110 1839 TYLER ST Apr 24 2017 01:27:47:750PM ATTEMPT TO CONTACT
17-0404109 500 UNITED DR Apr 24 2017 01:27:42:893PM AGENCY ASSIST
17-0404108 1500 E OAK ST Apr 24 2017 01:25:32:677PM CHECK ON THE WELFARE
17-0404107 810 AMITY RD Apr 24 2017 01:22:29:167PM SUPPLEMENT REPORT CALL
17-0404104 1405 S DONAGHEY AV Apr 24 2017 01:09:56:493PM ATTEMPT TO CONTACT
17-0404103 821 HOGAN LN Apr 24 2017 01:04:49:830PM CHECK ON THE WELFARE
17-0404102 2875 GULFSHORE DR Apr 24 2017 01:03:23:300PM SUSPICIOUS ACTIVITY
17-0404099 3740 OLD MORRILTON HWY Apr 24 2017 12:56:18:167PM AGENCY ASSIST
17-0404098 Apr 24 2017 12:55:49:257PM ATTEMPT TO CONTACT
17-0404097 3099 SALEM RD Apr 24 2017 12:46:26:583PM BREAKING OR ENTERING
17-0404096 2124 ADA AV Apr 24 2017 12:46:22:820PM SUPPLEMENT REPORT CALL
17-0404095 17-04915 208 OLIVER ST Apr 24 2017 12:41:58:673PM ATTEMPT TO CONTACT
17-0404094 2800 BLANEY HILL RD Apr 24 2017 12:36:07:143PM ANIMAL BITE
17-0404092 130 HARKRIDER ST Apr 24 2017 12:18:41:250PM DISTURBANCE
17-0404091 1700 MUSEUM RD Apr 24 2017 12:14:04:220PM CITIZEN ASSIST
17-0404089 2302 COLLEGE AV Apr 24 2017 12:02:03:497PM ANIMAL BITE
17-0404088 655 ELSINGER BLVD Apr 24 2017 11:52:59:647AM SERVING SUBPOENA
17-0404086 601 ELSINGER BLVD Apr 24 2017 11:43:11:080AM SERVING SUBPOENA
17-0404085 17-04914 2010 RICH SMITH LN Apr 24 2017 11:40:59:027AM BREAKING OR ENTERING
17-0404084 150 S HOGAN LN Apr 24 2017 11:39:47:180AM TRAFFIC PROBLEM-CONTROL
17-0404081 1158 WINFIELD ST Apr 24 2017 11:30:34:987AM AGENCY ASSIST
17-0404080 1075 ANDREWS DR Apr 24 2017 11:25:08:307AM CITIZEN ASSIST
17-0404078 2120 ADA AV Apr 24 2017 11:20:25:210AM ATTEMPT TO CONTACT
17-0404077 102 OAK ST Apr 24 2017 11:18:42:970AM ATTEMPT TO CONTACT
17-0404076 1701 HARKRIDER ST Apr 24 2017 11:16:29:890AM SUPPLEMENT REPORT CALL
17-0404075 5115 ROUND ROCK DR Apr 24 2017 11:07:57:810AM SERVING SUBPOENA
17-0404073 1835 INDEPENDENCE AV Apr 24 2017 10:34:34:340AM SERVING SUBPOENA
17-0404072 1105 PRAIRIE ST Apr 24 2017 10:33:39:793AM MISDEMEANOR WARRANT SERVICE
17-0404069 1019 FRONT ST Apr 24 2017 10:13:52:127AM ALARM - BANK
17-0404067 475 ROBINS ST Apr 24 2017 10:07:47:360AM SUSPICIOUS PERSON
17-0404058 805 AMITY RD Apr 24 2017 09:33:10:597AM REPOSSESSION
17-0404054 1104 E OAK ST Apr 24 2017 09:09:05:480AM FRAUD
17-0404051 1200 DAVE WARD DR Apr 24 2017 08:49:06:387AM ACCIDENT - PROPERTY DAMAGE
17-0404049 17-04906 364 DENISON ST Apr 24 2017 08:37:40:750AM CRIMINAL MISCHIEF
17-0404046 17-04908 800 S DONAGHEY AV Apr 24 2017 08:23:00:987AM ACCIDENT - PROPERTY DAMAGE
17-0404044 17-04907 318 MITCHELL ST Apr 24 2017 08:11:25:327AM BREAKING OR ENTERING
17-0404042 17-04905 4300 COLLEGE AV Apr 24 2017 07:56:26:850AM RECKLESS DRIVER
17-0404041 540 UNITED DR Apr 24 2017 07:50:54:763AM ALARM - BANK
17-0404040 17-04904 2375 DAVE WARD DR Apr 24 2017 07:50:48:930AM ACCIDENT - PROPERTY DAMAGE
17-0404039 2209 WEST ST Apr 24 2017 07:49:17:673AM SUPPLEMENT REPORT CALL
17-0404038 17-04903 2001 SALEM RD Apr 24 2017 07:44:33:617AM ACCIDENT - PROPERTY DAMAGE
17-0404037 2100 MEADOWLAKE RD Apr 24 2017 07:37:40:850AM ALARM
17-0404036 3099 SALEM RD Apr 24 2017 07:17:57:383AM ABANDONED VEHICLE
17-0404035 1655 S AMITY RD Apr 24 2017 07:05:06:533AM ATTEMPT TO CONTACT
17-0404033 2100 SALEM RD Apr 24 2017 06:20:40:900AM CRIMINAL MISCHIEF
17-0404032 201 SKYLINE DR Apr 24 2017 06:06:36:763AM SUSPICIOUS VEHICLE
17-0404031 22 WHITE OAK DR Apr 24 2017 06:03:46:610AM ALARM
17-0404029 8 WOODBRIDGE DR Apr 24 2017 04:22:57:450AM PROWLER
17-0404028 801 SOUTH GERMAN LN Apr 24 2017 03:46:42:620AM DISTURBANCE
17-0404025 2710 PRINCE ST Apr 24 2017 01:51:25:153AM ALARM
17-0404023 1155 SKYLINE DR Apr 24 2017 01:33:00:687AM ALARM
17-0404022 3035 PEBBLE BEACH DR Apr 24 2017 01:20:44:590AM PARKING VIOLATION
17-0404021 1800 OTT MEMORIAL BLVD Apr 24 2017 01:06:19:450AM CHECKING VEHICLE
17-0404020 1740 S SALEM RD Apr 24 2017 12:59:14:177AM PARKING VIOLATION
17-0404019 17-04901 2125 HARKRIDER ST Apr 24 2017 12:48:30:317AM CHECKING PERSON
17-0404017 2100 SALEM RD Apr 24 2017 12:10:26:267AM CHECKING VEHICLE
17-0404015 20 KINLEY DR Apr 23 2017 11:51:37:203PM CHECKING VEHICLE
17-0404013 20 KINLEY DR Apr 23 2017 11:36:07:443PM CHECKING VEHICLE
17-0404012 1250 OLD MORRILTON HWY Apr 23 2017 11:35:51:450PM CHECKING VEHICLE
17-0404011 1704 CLIFTON ST Apr 23 2017 11:30:58:367PM REPOSSESSION
17-0404010 1090 SKYLINE DR Apr 23 2017 11:23:46:913PM DISTURBANCE
17-0404009 1835 TYLER ST Apr 23 2017 11:08:27:957PM ATTEMPT TO CONTACT
17-0404008 801 SOUTH GERMAN LN Apr 23 2017 11:00:50:490PM DISTURBANCE
17-0404007 27 MORNINGSIDE DR Apr 23 2017 10:26:08:837PM ATTEMPT TO CONTACT
17-0404006 375 MONROE ST Apr 23 2017 10:03:42:373PM SUPPLEMENT REPORT CALL
17-0404004 17-04897 375 MONROE ST Apr 23 2017 09:26:50:413PM MISSING PERSON
17-0404003 17-04898 501 ELSINGER BLVD Apr 23 2017 09:24:01:607PM ACCIDENT - PRIVATE PROPERTY
17-0404002 5320 LANTANA DR Apr 23 2017 09:17:02:423PM AGENCY ASSIST
17-0404001 Apr 23 2017 09:10:24:950PM ATTEMPT TO CONTACT
17-0404000 23 SMOKING OAK RD Apr 23 2017 09:05:47:650PM SUSPICIOUS PERSON
17-0403998 17-04896 2050 DAVE WARD DR Apr 23 2017 08:46:34:013PM ACCIDENT - PROPERTY DAMAGE
17-0403995 1155 SKYLINE DR Apr 23 2017 08:16:43:573PM DISTURBANCE
17-0403994 17-04894 955 SOUTH GERMAN LN Apr 23 2017 07:59:24:920PM ACCIDENT - PRIVATE PROPERTY
17-0403992 513 2ND ST Apr 23 2017 07:38:13:893PM SUPPLEMENT REPORT CALL
17-0403991 17-04893 2100 DAVE WARD DR Apr 23 2017 07:27:19:690PM ACCIDENT - PROPERTY DAMAGE
17-0403990 3485 IRBY DR Apr 23 2017 07:26:54:320PM SUSPICIOUS PERSON
17-0403989 17-04890 1601 HOGAN LN Apr 23 2017 07:21:45:010PM CRIMINAL MISCHIEF
17-0403988 101 OAK ST Apr 23 2017 07:19:04:903PM TRESPASSING
17-0403987 2235 DAVE WARD DR Apr 23 2017 07:14:51:133PM ATTEMPT TO CONTACT
17-0403986 716 WALNUT ST Apr 23 2017 07:14:31:477PM DISTURBANCE
17-0403985 1405 LOLLIE RD Apr 23 2017 07:12:00:027PM SUSPICIOUS ACTIVITY
17-0403984 17-04892 27 MORNINGSIDE DR Apr 23 2017 07:06:07:133PM BURGLARY
17-0403983 17-04891 1930 HENRY ST Apr 23 2017 06:55:42:713PM DOMESTIC DISTURBANCE
17-0403982 475 ROBINS ST Apr 23 2017 06:38:07:847PM LOUD NOISE-MUSIC
17-0403981 17-04889 1601 HOGAN LN Apr 23 2017 06:27:03:497PM NO CONTACT ORDER VIOLATION
17-0403980 1485 OLD MORRILTON HWY Apr 23 2017 06:20:56:467PM ATTEMPT TO CONTACT
17-0403979 17-04888 2050 DAVE WARD DR Apr 23 2017 06:11:00:083PM ACCIDENT - PROPERTY DAMAGE
17-0403977 17-04887 2730 DAVE WARD DR Apr 23 2017 05:27:30:103PM ACCIDENT - PRIVATE PROPERTY
17-0403976 17-04886 3015 PEBBLE BEACH DR Apr 23 2017 05:17:49:683PM THEFT OF PROPERTY
17-0403975 2400 MARKET PLAZA DR Apr 23 2017 05:13:35:510PM ATTEMPT TO CONTACT
17-0403972 1155 SKYLINE DR Apr 23 2017 04:52:35:040PM INDECENT EXPOSURE
17-0403971 17-04884 1290 S AMITY RD Apr 23 2017 04:42:45:717PM HARASSING COMMUNICATIONS
17-0403970 1125 ADDY BROOK ST Apr 23 2017 04:37:02:250PM CHECK ON THE WELFARE
17-0403969 17-04885 3015 PEBBLE BEACH DR Apr 23 2017 04:18:46:800PM FRAUD
17-0403968 1300 TONY CIR Apr 23 2017 04:12:47:483PM HARASSING COMMUNICATIONS
17-0403967 1515 EAST GERMAN LN Apr 23 2017 03:56:28:210PM DOMESTIC DISTURBANCE
17-0403966 17-04883 2750 GARDEN GROVE DR Apr 23 2017 03:49:44:607PM BREAKING OR ENTERING
17-0403961 17-04880 1403 BEAN ST Apr 23 2017 02:42:37:187PM DOMESTIC DISTURBANCE
17-0403959 2400 MARKET PLAZA DR Apr 23 2017 02:32:56:730PM ATTEMPT TO CONTACT
17-0403958 1445 GARDENIA Apr 23 2017 02:31:02:420PM ALARM
17-0403957 1701 ROBINS ST Apr 23 2017 02:17:04:030PM LOUD NOISE-MUSIC
17-0403956 17-04879 670 ELSINGER BLVD Apr 23 2017 02:06:54:823PM SHOPLIFTING
17-0403955 1465 SENA DR Apr 23 2017 02:01:36:913PM CHECK ON THE WELFARE
17-0403954 17-04878 2235 DAVE WARD DR Apr 23 2017 01:58:48:057PM DOMESTIC DISTURBANCE
17-0403952 2840 DAVE WARD DR Apr 23 2017 01:21:11:673PM SUSPICIOUS ACTIVITY
17-0403951 17-04877 617 3RD AV Apr 23 2017 01:10:25:553PM ATTEMPT TO CONTACT
17-0403950 1616 WESTLAKE DR Apr 23 2017 01:09:46:957PM LOUD NOISE-MUSIC
17-0403949 3015 PEBBLE BEACH DR Apr 23 2017 12:59:13:953PM FRAUD
17-0403947 17-04874 1105 PRAIRIE ST Apr 23 2017 12:11:07:787PM AGENCY ASSIST
17-0403946 17-04873 1105 PRAIRIE ST Apr 23 2017 12:10:32:760PM AGENCY ASSIST
17-0403945 17-04876 150 E OAK ST Apr 23 2017 11:54:17:013AM SHOPLIFTING
17-0403944 17-04875 260 SALEM RD Apr 23 2017 11:51:11:863AM BREAKING OR ENTERING
17-0403943 1155 SKYLINE DR Apr 23 2017 11:48:48:637AM DISTURBANCE
17-0403942 200 S HARKRIDER DR Apr 23 2017 11:46:26:140AM DOMESTIC DISTURBANCE
17-0403941 4315 BAY HILL DR Apr 23 2017 11:45:04:650AM ALARM
17-0403940 601 ELSINGER BLVD Apr 23 2017 11:29:15:993AM SUPPLEMENT REPORT CALL
17-0403938 2101 TYLER ST Apr 23 2017 10:55:57:073AM ATTEMPT TO CONTACT
17-0403937 2295 NATURE TRL Apr 23 2017 10:52:51:503AM HARASSING COMMUNICATIONS
17-0403933 17-04872 1510 MILL ST Apr 23 2017 09:35:08:300AM BREAKING OR ENTERING
17-0403929 4415 OREGON TRL Apr 23 2017 08:42:50:363AM LOUD NOISE-MUSIC
17-0403928 1 CEDAR OAKS DR Apr 23 2017 08:35:01:387AM SUPPLEMENT REPORT CALL
17-0403927 404 S HARKRIDER DR Apr 23 2017 08:20:12:837AM CHECK ON THE WELFARE
17-0403925 2207 INDEPENDENCE AV Apr 23 2017 07:54:52:850AM DOMESTIC DISTURBANCE
17-0403924 1155 SKYLINE DR Apr 23 2017 07:53:06:040AM CHECK ON THE WELFARE
17-0403918 20 KINLEY DR Apr 23 2017 03:47:41:030AM CHECKING VEHICLE
17-0403917 1167 DONAGHEY AV Apr 23 2017 03:44:49:993AM DOMESTIC DISTURBANCE
17-0403916 466 HARKRIDER ST Apr 23 2017 03:28:07:530AM DOMESTIC DISTURBANCE
17-0403915 67 GRIFFITH ST Apr 23 2017 03:26:51:867AM ATTEMPT TO CONTACT
17-0403914 1167 DONAGHEY AV Apr 23 2017 02:58:13:453AM UNKNOWN TROUBLE
17-0403913 17-04870 5125 GREYSTONE DR Apr 23 2017 02:50:06:797AM SUSPICIOUS VEHICLE
17-0403911 422 ANGUS ST Apr 23 2017 02:34:15:550AM CHECKING VEHICLE
17-0403910 2300 PRINCE ST Apr 23 2017 02:26:05:877AM CHECKING VEHICLE
17-0403908 1925 POTEETE DR Apr 23 2017 02:04:19:297AM CHECKING VEHICLE
17-0403906 500 OAK ST Apr 23 2017 01:51:00:367AM CHECKING PERSON
17-0403905 1355 JOYNER DR Apr 23 2017 01:33:01:350AM LOUD NOISE-MUSIC
17-0403902 2411 MEADOW DR Apr 23 2017 01:12:04:903AM OPEN DOOR/WINDOW/FENCE
17-0403901 1655 DAVE WARD DR Apr 23 2017 01:10:22:577AM SUSPICIOUS PERSON
17-0403899 22 ROLLING HILLS DR Apr 23 2017 12:52:41:627AM ALARM
17-0403897 2521 COLLEGE AV Apr 23 2017 12:47:26:810AM CHECKING VEHICLE
17-0403896 2302 COLLEGE AV Apr 23 2017 12:29:33:693AM AGENCY ASSIST
17-0403895 375 E OAK ST Apr 23 2017 12:28:58:487AM DISTURBANCE
17-0403893 1000 FACTORY ST Apr 23 2017 12:25:11:713AM CHECKING VEHICLE
17-0403892 101 OAK ST Apr 23 2017 12:17:44:737AM CHECKING PERSON
17-0403891 1915 SIMMS ST Apr 23 2017 12:08:03:873AM LOUD NOISE-MUSIC
17-0403889 17-04869 1 RIVIERA DR Apr 22 2017 11:51:21:733PM SUSPICIOUS ACTIVITY
17-0403884 17-04867 1050 ELLIS AV Apr 22 2017 11:08:44:050PM ACCIDENT - HIT AND RUN
17-0403882 935 CORDOBA DR Apr 22 2017 10:52:22:020PM CHECKING VEHICLE
17-0403881 1503 HAIRSTON PL Apr 22 2017 10:45:02:847PM LOUD NOISE-MUSIC
17-0403880 2720 ARROW SMITH LN Apr 22 2017 10:30:20:800PM SUPPLEMENT REPORT CALL
17-0403879 1420 BERMUDA ST Apr 22 2017 10:25:50:493PM CRIMINAL MISCHIEF
17-0403878 17-04866 3100 IRBY DR Apr 22 2017 10:08:06:547PM HARASSING COMMUNICATIONS
17-0403877 1167 DONAGHEY AV Apr 22 2017 10:05:05:803PM DOMESTIC DISTURBANCE
17-0403876 895 OAK ST Apr 22 2017 10:02:46:420PM FRAUD
17-0403874 1875 OTT MEMORIAL BLVD Apr 22 2017 09:56:03:477PM DOMESTIC DISTURBANCE
17-0403867 1503 HAIRSTON PL Apr 22 2017 09:06:49:940PM LOUD NOISE-MUSIC
17-0403864 17-04865 335 RADCLIFFE DR Apr 22 2017 08:48:10:593PM CRIMINAL MISCHIEF
17-0403863 129 I40WB Apr 22 2017 08:46:06:060PM STALLED VEHICLE
17-0403862 17-04864 127 I40WB Apr 22 2017 08:44:18:697PM ACCIDENT - PROPERTY DAMAGE
17-0403861 1655 DAVE WARD DR Apr 22 2017 08:30:45:077PM ATTEMPT TO CONTACT
17-0403855 500 SOUTH GERMAN LN Apr 22 2017 07:32:31:557PM ATTEMPT TO CONTACT
17-0403854 409 CENTER ST Apr 22 2017 07:31:42:630PM ALARM
17-0403853 2060 MASSEE GARDENS Apr 22 2017 07:28:43:850PM ALARM
17-0403852 1201 OLD MORRILTON HWY Apr 22 2017 07:28:33:053PM ENDANGERING WELFARE OF MINOR
17-0403849 1105 PRAIRIE ST Apr 22 2017 06:35:35:653PM SUPPLEMENT REPORT CALL
17-0403846 2710 STONEWOOD DR Apr 22 2017 05:33:20:870PM AGENCY ASSIST
17-0403845 600 5TH AV Apr 22 2017 05:25:24:357PM LOUD NOISE-MUSIC
17-0403844 201 SKYLINE DR Apr 22 2017 05:19:54:297PM ENDANGERING WELFARE OF MINOR
17-0403843 1895 FOSTER DR Apr 22 2017 05:18:32:407PM SHOTS FIRED
17-0403842 17-04863 1310 CLIFTON ST Apr 22 2017 05:17:12:310PM BATTERY REPORT
17-0403841 17-04862 400 SKYLINE DR Apr 22 2017 04:55:22:770PM ACCIDENT - PROPERTY DAMAGE
17-0403839 320 CONWAY BLVD Apr 22 2017 04:44:52:470PM ALARM
17-0403836 1825 E OAK ST Apr 22 2017 03:58:20:660PM ALARM
17-0403835 17-04861 2104 ARKANSAS AV Apr 22 2017 03:54:55:410PM BURGLARY
17-0403833 2295 NATURE TRL Apr 22 2017 03:08:56:253PM HARASSING COMMUNICATIONS
17-0403830 716 WALNUT ST Apr 22 2017 02:21:48:223PM MISSING PERSON
17-0403829 17-04859 605 4TH AV Apr 22 2017 02:15:13:463PM BURGLARY
17-0403828 1610 PRINCE ST Apr 22 2017 02:13:47:370PM ALARM
17-0403827 1 CONWAY TOWNE CENTRE DR Apr 22 2017 01:54:41:703PM CHECK ON THE WELFARE
17-0403826 17-04860 2751 DAVE WARD DR Apr 22 2017 01:48:26:153PM BREAKING OR ENTERING
17-0403824 17-04858 1001 HARKRIDER ST Apr 22 2017 01:43:45:697PM ACCIDENT - HIT AND RUN
17-0403823 17-04857 1200 DAVE WARD DR Apr 22 2017 01:24:07:647PM ACCIDENT - PROPERTY DAMAGE
17-0403821 17-04856 600 SKYLINE DR Apr 22 2017 01:20:06:187PM ACCIDENT - PROPERTY DAMAGE
17-0403820 17-04855 701 REEDY RD Apr 22 2017 12:53:51:010PM CRIMINAL MISCHIEF
17-0403819 2100 DAVE WARD DR Apr 22 2017 12:42:33:313PM ACCIDENT - PROPERTY DAMAGE
17-0403818 17-04854 2730 DAVE WARD DR Apr 22 2017 12:39:22:770PM BREAKING OR ENTERING
17-0403817 2425 DAVE WARD DR Apr 22 2017 12:12:03:900PM FOUND PROPERTY
17-0403816 1505 OLD MORRILTON HWY Apr 22 2017 12:03:41:670PM SUSPICIOUS PERSON
17-0403815 855 SOUTH GERMAN LN Apr 22 2017 12:02:32:767PM ABANDONED VEHICLE
17-0403814 17-04852 1 CEDAR OAKS DR Apr 22 2017 12:00:46:353PM THEFT OF VEHICLE
17-0403813 17-04851 220 E OAK ST Apr 22 2017 11:43:17:893AM FRAUD
17-0403810 3065 SASSY RD Apr 22 2017 11:14:01:880AM ALARM
17-0403809 2710 STONEWOOD DR Apr 22 2017 11:13:15:327AM SUPPLEMENT REPORT CALL
17-0403808 1415 BLACKWOOD CV Apr 22 2017 11:12:59:747AM CHECKING VEHICLE
17-0403807 17-04850 125 I40WB Apr 22 2017 10:59:50:207AM ACCIDENT - PROPERTY DAMAGE
17-0403806 17-04849 4101 PRINCE ST Apr 22 2017 10:32:49:017AM ACCIDENT - PROPERTY DAMAGE
17-0403805 17-04847 1465 BLACKWOOD CV Apr 22 2017 10:30:00:167AM THEFT OF VEHICLE
17-0403804 17-04845 500 E OAK ST Apr 22 2017 10:29:07:063AM ACCIDENT - PROPERTY DAMAGE
17-0403802 1045 WINEBERRY RD Apr 22 2017 10:22:25:600AM SUSPICIOUS VEHICLE
17-0403801 4203 MALLARD LN Apr 22 2017 10:19:52:533AM ATTEMPT TO CONTACT
17-0403800 17-04846 2710 STONEWOOD DR Apr 22 2017 10:14:38:133AM CRIMINAL MISCHIEF
17-0403799 2805 GULFSHORE DR Apr 22 2017 10:11:15:063AM ALARM
17-0403798 17-04853 605 4TH AV Apr 22 2017 09:52:41:420AM THEFT OF SERVICES
17-0403797 17-04844 2720 ARROW SMITH LN Apr 22 2017 09:28:43:457AM BREAKING OR ENTERING
17-0403796 2099 HILLMAN ST Apr 22 2017 09:23:36:690AM ATTEMPT TO CONTACT
17-0403795 17-04843 2740 ARROW SMITH LN Apr 22 2017 09:18:44:037AM THEFT OF VEHICLE
17-0403794 2336 WASHINGTON AV Apr 22 2017 09:09:05:250AM ALARM
17-0403793 17-04842 2780 ARROW SMITH LN Apr 22 2017 08:58:42:153AM BREAKING OR ENTERING
17-0403791 2480 LANDOVER TRL Apr 22 2017 08:33:44:877AM SUPPLEMENT REPORT CALL
17-0403790 17-04841 1450 RACHEL DR Apr 22 2017 08:32:11:100AM THEFT OF PROPERTY
17-0403789 2060 MASSEE GARDENS Apr 22 2017 08:27:18:230AM CHECK ON THE WELFARE
17-0403788 1105 PRAIRIE ST Apr 22 2017 08:20:39:037AM ATTEMPT TO CONTACT
17-0403787 17-04839 300 S DONAGHEY AV Apr 22 2017 07:48:32:103AM THEFT OF PROPERTY
17-0403786 17-04840 13 HAWTHORNE DR Apr 22 2017 07:10:43:437AM AGENCY ASSIST
17-0403785 2335 TYLER ST Apr 22 2017 07:10:34:857AM ALARM
17-0403784 17-04838 2480 LANDOVER TRL Apr 22 2017 06:07:01:280AM THEFT OF VEHICLE
17-0403783 814 E OAK ST Apr 22 2017 05:25:05:573AM ALARM
17-0403782 1715 TYLER ST Apr 22 2017 05:09:22:097AM BREAKING OR ENTERING
17-0403780 1449 OLD MILITARY RD Apr 22 2017 04:45:17:033AM DOMESTIC DISTURBANCE
17-0403778 1815 TYLER ST Apr 22 2017 04:04:01:613AM SHOTS FIRED
17-0403777 17-04837 1105 PRAIRIE ST Apr 22 2017 03:43:30:340AM FOUND PROPERTY
17-0403776 4001 OLD MORRILTON HWY Apr 22 2017 02:46:44:457AM TRAFFIC PROBLEM-CONTROL
17-0403772 1839 TYLER ST Apr 22 2017 02:25:53:283AM CHECKING PERSON
17-0403771 1908 HOGAN LN Apr 22 2017 01:55:12:963AM LOUD NOISE-MUSIC
17-0403770 17-04835 1444 DAVE WARD DR Apr 22 2017 01:25:05:667AM ACCIDENT - HIT AND RUN
17-0403769 1902 HOGAN LN Apr 22 2017 12:50:23:030AM LOUD NOISE-MUSIC
17-0403767 222 E DAVE WARD DR Apr 22 2017 12:26:58:433AM SUSPICIOUS ACTIVITY
17-0403766 701 1ST AV Apr 22 2017 12:15:00:547AM CHECKING PERSON
17-0403764 17-04832 1903 HOGAN LN Apr 22 2017 12:11:47:360AM CHECKING PERSON
17-0403763 2125 HARKRIDER ST Apr 22 2017 12:11:47:267AM CHECKING VEHICLE
17-0403760 2370 SANDERS ST Apr 22 2017 12:04:03:803AM CHECKING PERSON
17-0403759 1025 E SIEBENMORGEN RD Apr 21 2017 11:35:01:240PM CHECKING VEHICLE
17-0403757 2330 SANDERS ST Apr 21 2017 11:29:22:683PM SUSPICIOUS VEHICLE
17-0403756 2730 DAVE WARD DR Apr 21 2017 11:20:05:223PM LOUD NOISE-MUSIC
17-0403755 3200 TYLER ST Apr 21 2017 11:16:07:963PM SUSPICIOUS VEHICLE
17-0403754 3400 IRBY DR Apr 21 2017 11:11:51:713PM ALARM
17-0403752 1380 CHAMPIONS DR Apr 21 2017 10:49:09:280PM SUPPLEMENT REPORT CALL
17-0403751 17-04830 513 2ND ST Apr 21 2017 10:41:05:853PM RUNAWAY
17-0403749 17-04829 1902 HOGAN LN Apr 21 2017 10:30:03:407PM CRIMINAL MISCHIEF
17-0403748 201 SKYLINE DR Apr 21 2017 10:16:49:353PM MISSING PERSON
17-0403747 2730 DAVE WARD DR Apr 21 2017 10:15:35:000PM LOUD NOISE-MUSIC
17-0403744 1700 DONAGHEY AV Apr 21 2017 09:36:41:873PM RECKLESS DRIVER
17-0403742 6 JONATHON DR Apr 21 2017 09:19:56:200PM CIVIL STAND BY
17-0403740 4101 PRINCE ST Apr 21 2017 09:10:14:030PM INTOXICATED DRIVER
17-0403734 2445 PEABODY DR Apr 21 2017 08:37:58:730PM AGENCY ASSIST
17-0403733 207 WILLOW ST Apr 21 2017 08:33:51:603PM DOMESTIC DISTURBANCE
17-0403731 1325 ROBINS ST Apr 21 2017 08:10:58:183PM TRESPASSING
17-0403730 17-04826 2445 PEABODY DR Apr 21 2017 08:07:49:577PM INTOXICATED PERSON
17-0403728 2413 JESSICA DR Apr 21 2017 07:54:27:430PM CIVIL STAND BY
17-0403726 1200 E DAVE WARD DR Apr 21 2017 07:50:44:130PM RECKLESS DRIVER
17-0403725 17-04824 2865 PATRICIA LN Apr 21 2017 07:35:20:530PM DOMESTIC DISTURBANCE
17-0403724 215 CASTLEBERRY DR Apr 21 2017 07:29:50:563PM SUSPICIOUS PERSON
17-0403723 2302 COLLEGE AV Apr 21 2017 07:16:42:130PM DISTURBANCE
17-0403722 2302 COLLEGE AV Apr 21 2017 07:14:01:877PM DISTURBANCE
17-0403720 17-04823 650 ELSINGER BLVD Apr 21 2017 07:03:36:463PM INTERFERENCE WITH CUSTODY
17-0403717 1500 HARKRIDER ST Apr 21 2017 06:55:55:913PM INTOXICATED DRIVER
17-0403716 1105 PRAIRIE ST Apr 21 2017 06:46:04:850PM CIVIL MATTER
17-0403715 875 SKYLINE DR Apr 21 2017 06:33:40:130PM SUSPICIOUS PERSON
17-0403714 1325 ROBINS ST Apr 21 2017 06:31:56:157PM TRESPASSING
17-0403713 1 CADRON SETTLEMENT PARK RD Apr 21 2017 06:20:14:580PM INDECENT EXPOSURE
17-0403712 475 ROBINS ST Apr 21 2017 06:16:42:813PM ATTEMPT TO CONTACT
17-0403710 17-04821 512 1ST AV Apr 21 2017 05:59:22:030PM RUNAWAY
17-0403709 17-04819 420 OAK ST Apr 21 2017 05:47:39:990PM ACCIDENT - PRIVATE PROPERTY
17-0403708 201 SKYLINE DR Apr 21 2017 05:45:43:797PM SUSPICIOUS PERSON
17-0403707 1702 HARKRIDER ST Apr 21 2017 05:39:34:147PM RECKLESS DRIVER
17-0403705 17-04817 1890 E OAK ST Apr 21 2017 05:19:36:263PM ACCIDENT - PROPERTY DAMAGE
17-0403704 17-04820 2124 ADA AV Apr 21 2017 05:17:16:530PM BURGLARY
17-0403703 803 HARKRIDER ST Apr 21 2017 05:17:10:580PM ALARM
17-0403702 300 HARKRIDER ST Apr 21 2017 05:13:45:530PM SHOTS FIRED
17-0403701 17-04818 2209 WEST ST Apr 21 2017 05:11:14:000PM RUNAWAY
17-0403700 1325 OLD MORRILTON HWY Apr 21 2017 05:10:53:603PM LOITERING
17-0403699 2500 OLD MORRILTON HWY Apr 21 2017 05:04:46:233PM CHECK ON THE WELFARE
17-0403698 17-04822 2200 MEADOWLAKE RD Apr 21 2017 04:48:20:283PM COMPUTER CRIMES
17-0403697 17-04816 150 E OAK ST Apr 21 2017 04:44:09:280PM HARASSMENT
17-0403695 17-04814 1701 ROBINS ST Apr 21 2017 04:39:33:307PM ACCIDENT - PROPERTY DAMAGE
17-0403694 324 HELEN ST Apr 21 2017 04:38:54:780PM HARASSING COMMUNICATIONS
17-0403693 29 ROLLING HILLS DR Apr 21 2017 04:36:40:540PM HARASSING COMMUNICATIONS
17-0403691 4520 HARDWOOD DR Apr 21 2017 04:23:33:953PM ALARM
17-0403690 114 EVE LN Apr 21 2017 04:21:14:277PM ANIMAL BITE
17-0403689 2035 SPRINGWOOD DR Apr 21 2017 04:18:57:193PM ALARM
17-0403688 1615 E OAK ST Apr 21 2017 04:12:48:360PM NO CONTACT ORDER VIOLATION
17-0403687 17-04813 1380 CHAMPIONS DR Apr 21 2017 04:05:07:020PM RUNAWAY
17-0403686 17-04812 1463 COLLEGE AV Apr 21 2017 03:58:50:090PM ACCIDENT - PROPERTY DAMAGE
17-0403685 4095 PRINCE ST Apr 21 2017 03:53:08:087PM CHECK ON THE WELFARE
17-0403684 17-04811 4300 COLLEGE AV Apr 21 2017 03:42:40:863PM ACCIDENT - PROPERTY DAMAGE
17-0403682 2060 MASSEE GARDENS Apr 21 2017 03:36:25:137PM BURGLARY
17-0403681 521 3RD ST Apr 21 2017 03:36:20:100PM SHOTS FIRED
17-0403676 205 MILL ST Apr 21 2017 03:17:54:620PM SUPPLEMENT REPORT CALL
17-0403675 275 HELEN ST Apr 21 2017 03:13:56:197PM CIVIL MATTER
17-0403674 17-04808 2235 E OAK ST Apr 21 2017 03:07:46:747PM ACCIDENT - PRIVATE PROPERTY
17-0403673 1310 CLIFTON ST Apr 21 2017 03:06:41:570PM BATTERY REPORT
17-0403672 17-04807 1101 COLLEGE AV Apr 21 2017 02:59:04:760PM ACCIDENT - HIT AND RUN
17-0403671 112 E OAK ST Apr 21 2017 02:41:23:000PM LOITERING
17-0403670 2125 HARKRIDER ST Apr 21 2017 02:41:20:167PM CHECK ON THE WELFARE
17-0403669 17-04809 103 OAK ST Apr 21 2017 02:39:46:283PM FRAUD
17-0403665 810 AMITY RD Apr 21 2017 02:13:06:833PM INTOXICATED DRIVER
17-0403664 801 SOUTH GERMAN LN Apr 21 2017 02:11:25:503PM DOMESTIC DISTURBANCE
17-0403663 835 S DONAGHEY AV Apr 21 2017 02:07:47:383PM CRIMINAL MISCHIEF
17-0403660 17-04810 2011 ROBINSON AV Apr 21 2017 02:01:15:297PM THEFT OF PROPERTY
17-0403658 17-04801 2270 MEADOWLAKE RD Apr 21 2017 01:53:23:403PM CRIMINAL MISCHIEF
17-0403657 1775 OLD MORRILTON HWY Apr 21 2017 01:50:29:410PM CHECK ON THE WELFARE
17-0403656 17-04798 580 E DAVE WARD DR Apr 21 2017 01:47:46:083PM HARASSMENT
17-0403655 17-04799 1260 S AMITY RD Apr 21 2017 01:44:21:120PM SHOPLIFTING
17-0403654 17-04804 1510 MILL ST Apr 21 2017 01:35:29:593PM FRAUD
17-0403652 17-04797 550 E DAVE WARD DR Apr 21 2017 01:16:17:140PM ACCIDENT - PROPERTY DAMAGE
17-0403651 2840 LONDONDERRY LN Apr 21 2017 01:10:21:013PM ALARM
17-0403650 151 LEE ANDREW LN Apr 21 2017 12:54:29:620PM LOST CHILD-FOUND CHILD
17-0403649 17-04796 2730 PRINCE ST Apr 21 2017 12:50:53:470PM ACCIDENT - PRIVATE PROPERTY
17-0403648 17-04794 1500 HARKRIDER ST Apr 21 2017 12:49:28:140PM ACCIDENT - PERSONAL INJURY
17-0403647 17-04795 1155 SKYLINE DR Apr 21 2017 12:48:08:200PM SHOPLIFTING
17-0403645 17-04792 1175 MORNINGSIDE DR Apr 21 2017 12:28:16:177PM ABUSE
17-0403644 2050 DAVE WARD DR Apr 21 2017 12:23:25:557PM ATTEMPT TO CONTACT
17-0403643 3700 JEANNA DR Apr 21 2017 12:19:18:263PM SUPPLEMENT REPORT CALL
17-0403641 525 SOUTH GERMAN LN Apr 21 2017 12:10:23:397PM MISDEMEANOR WARRANT SERVICE
17-0403640 3650 COLLEGE AV Apr 21 2017 12:02:26:170PM ALARM
17-0403639 2730 DAVE WARD DR Apr 21 2017 11:56:29:607AM BREAKING OR ENTERING
17-0403638 1955 CLARK'S DR Apr 21 2017 11:49:55:217AM ALARM
17-0403637 3910 GABRIAL DR Apr 21 2017 11:46:34:710AM CIVIL MATTER
17-0403633 17-04791 1055 BROOKSIDE DR Apr 21 2017 11:27:17:057AM BREAKING OR ENTERING
17-0403631 17-04790 2212 WEST ST Apr 21 2017 11:00:57:480AM RUNAWAY
17-0403630 924 MILL ST Apr 21 2017 10:57:22:193AM DOMESTIC DISTURBANCE
17-0403629 17-04787 650 LOCUST AV Apr 21 2017 10:54:08:593AM FORGERY
17-0403628 1501 COLLEGE AV Apr 21 2017 10:50:00:090AM UNAUTHORIZED USE OF MOTOR VEHICLE
17-0403626 1222 SUTTON ST Apr 21 2017 10:45:22:027AM THEFT OF PROPERTY
17-0403618 787 MALLARD LN Apr 21 2017 10:05:09:323AM BARKING DOG COMPLAINT
17-0403616 215 GRIFFITH ST Apr 21 2017 10:03:38:423AM REPOSSESSION
17-0403607 2060 MASSEE GARDENS Apr 21 2017 09:13:17:210AM BURGLARY
17-0403606 475 ROBINS ST Apr 21 2017 09:09:00:260AM DISTURBANCE
17-0403599 226 HARKRIDER ST Apr 21 2017 08:30:14:490AM RECKLESS DRIVER
17-0403598 2895 DAVE WARD DR Apr 21 2017 08:27:25:067AM ALARM - BANK
17-0403596 17-04781 204 DONAGHEY AV Apr 21 2017 08:16:01:833AM ACCIDENT - PROPERTY DAMAGE
17-0403595 17-04780 1629 SOUTH BLVD Apr 21 2017 08:09:46:593AM HARASSMENT
17-0403594 500 DAVIS ST Apr 21 2017 08:00:49:377AM DISTURBANCE
17-0403591 2200 PRINCE ST Apr 21 2017 07:47:49:960AM TRAFFIC PROBLEM-CONTROL
17-0403589 17-04779 1160 HARKRIDER ST Apr 21 2017 07:27:30:077AM ACCIDENT - PRIVATE PROPERTY
17-0403586 2475 WASHINGTON AV Apr 21 2017 07:03:49:780AM ALARM - HOLD UP or PANIC
17-0403585 235 FARRIS RD Apr 21 2017 05:54:03:330AM ALARM
17-0403584 615 1ST ST Apr 21 2017 05:48:09:967AM LOUD NOISE-MUSIC
17-0403581 2740 COLLEGE AV Apr 21 2017 03:55:58:137AM CHECKING VEHICLE
17-0403580 17-04778 1536 CLIFTON ST Apr 21 2017 02:49:00:123AM THEFT OF VEHICLE
17-0403579 2310 SANDERS ST Apr 21 2017 02:40:51:443AM ALARM
17-0403578 801 SOUTH GERMAN LN Apr 21 2017 02:31:15:260AM LOUD NOISE-MUSIC
17-0403577 1420 CHAMPIONS DR Apr 21 2017 02:27:41:787AM OPEN DOOR/WINDOW/FENCE
17-0403576 1065 GEORGETOWN DR Apr 21 2017 02:13:34:033AM OPEN DOOR/WINDOW/FENCE
17-0403575 17-04777 500 SOUTH GERMAN LN Apr 21 2017 02:09:41:787AM MISDEMEANOR WARRANT SERVICE
17-0403573 3200 TYLER ST Apr 21 2017 01:44:00:453AM CHECKING VEHICLE
17-0403572 17-04776 550 E DAVE WARD DR Apr 21 2017 01:33:10:977AM ACCIDENT - PROPERTY DAMAGE
17-0403571 2900 WALKING TRAIL Apr 21 2017 01:05:27:090AM CHECKING VEHICLE
17-0403570 522 2ND AV Apr 21 2017 12:58:29:230AM SUSPICIOUS ACTIVITY
17-0403567 17-04775 1525 CLIFTON ST Apr 21 2017 12:44:51:937AM BATTERY REPORT
17-0403564 1501 DOGWOOD TRL Apr 21 2017 12:36:13:687AM OPEN DOOR/WINDOW/FENCE
17-0403563 20 KINLEY DR Apr 21 2017 12:06:32:267AM CHECKING VEHICLE
17-0403562 17-04773 2626 BRUCE ST Apr 20 2017 11:43:34:683PM BURGLARY
17-0403560 17-04774 3697 NUTTERS CHAPEL RD Apr 20 2017 11:26:31:713PM ABANDONED VEHICLE
17-0403558 17-04772 1155 SKYLINE DR Apr 20 2017 11:19:51:253PM INTOXICATED PERSON
17-0403557 4 SUSAN LN Apr 20 2017 11:17:32:507PM BARKING DOG COMPLAINT
17-0403554 3800 DAVE WARD DR Apr 20 2017 11:05:55:313PM ALARM
17-0403553 1380 CHAMPIONS DR Apr 20 2017 11:04:48:137PM SUPPLEMENT REPORT CALL
17-0403552 1270 DON'S LN Apr 20 2017 10:57:24:713PM ALARM
17-0403549 2100 DAVE WARD DR Apr 20 2017 10:23:38:527PM STALLED VEHICLE
17-0403548 3970 TAILHOOK DR Apr 20 2017 10:00:28:087PM ALARM
17-0403547 17-04771 1632 DONAGHEY AV Apr 20 2017 09:58:35:073PM ACCIDENT - PRIVATE PROPERTY
17-0403544 17-04770 1160 HOGAN LN Apr 20 2017 09:39:26:957PM CRIMINAL MISCHIEF
17-0403543 1052 NEAL ST Apr 20 2017 09:38:32:533PM CIVIL STAND BY
17-0403542 2280 SANDERS ST Apr 20 2017 09:13:41:410PM SUSPICIOUS VEHICLE
17-0403540 1380 CHAMPIONS DR Apr 20 2017 09:02:30:397PM SUPPLEMENT REPORT CALL
17-0403537 1405 S DONAGHEY AV Apr 20 2017 08:33:43:113PM ATTEMPT TO CONTACT
17-0403536 2010 MILLWOOD DR Apr 20 2017 08:29:34:173PM REPOSSESSION
17-0403534 285 S ASH ST Apr 20 2017 08:09:48:360PM LOUD NOISE-MUSIC
17-0403532 1155 SKYLINE DR Apr 20 2017 08:06:22:330PM CHECK ON THE WELFARE
17-0403529 1835 TYLER ST Apr 20 2017 07:50:17:493PM DISTURBANCE
17-0403528 17-04769 1380 CHAMPIONS DR Apr 20 2017 07:01:04:230PM RUNAWAY
17-0403526 1815 PRINCE ST Apr 20 2017 06:45:38:943PM DOMESTIC DISTURBANCE
17-0403525 17-04768 2050 DAVE WARD DR Apr 20 2017 06:33:21:230PM ACCIDENT - HIT AND RUN
17-0403524 1040 GEORGETOWN DR Apr 20 2017 05:57:55:743PM ALARM
17-0403523 438 HELEN ST Apr 20 2017 05:56:31:230PM TRESPASSING
17-0403522 17-04767 2170 HARKRIDER ST Apr 20 2017 05:50:49:267PM DOMESTIC DISTURBANCE
17-0403521 2401 CHRISTINA LN Apr 20 2017 05:49:23:540PM AGENCY ASSIST
17-0403520 923 PARKWAY ST Apr 20 2017 05:48:41:760PM ALARM
17-0403519 17-04766 3700 DAVE WARD DR Apr 20 2017 05:43:21:790PM ACCIDENT - PROPERTY DAMAGE
17-0403516 438 HELEN ST Apr 20 2017 05:33:03:260PM DISTURBANCE
17-0403515 475 ROBINS ST Apr 20 2017 05:24:01:887PM BATTERY REPORT
17-0403513 160 S ASH ST Apr 20 2017 05:22:55:303PM ATTEMPT TO CONTACT
17-0403512 17-04763 1001 HARKRIDER ST Apr 20 2017 05:18:52:143PM ACCIDENT - PROPERTY DAMAGE
17-0403510 17-04762 2100 WASHINGTON AV Apr 20 2017 05:05:47:977PM ACCIDENT - PROPERTY DAMAGE
17-0403509 17-04761 311 OAK ST Apr 20 2017 04:55:27:933PM ACCIDENT - PRIVATE PROPERTY
17-0403507 17-04764 1155 CUMULUS DR Apr 20 2017 04:35:42:627PM RUNAWAY
17-0403506 1040 CROSSPOINT RD Apr 20 2017 04:27:03:677PM SERVING SUBPOENA
17-0403505 400 E DAVE WARD DR Apr 20 2017 04:23:38:940PM ACCIDENT - PROPERTY DAMAGE
17-0403503 17-04760 1835 TYLER ST Apr 20 2017 04:02:26:300PM ACCIDENT - PRIVATE PROPERTY
17-0403502 201 SKYLINE DR Apr 20 2017 03:56:03:823PM SUPPLEMENT REPORT CALL
17-0403501 601 DAVE WARD DR Apr 20 2017 03:55:58:197PM SUPPLEMENT REPORT CALL
17-0403500 205 MILL ST Apr 20 2017 03:53:26:257PM SUPPLEMENT REPORT CALL
17-0403498 1000 MORNINGSIDE DR Apr 20 2017 03:47:38:730PM ATTEMPT TO CONTACT
17-0403497 17-04759 500 SALEM RD Apr 20 2017 03:45:54:707PM ACCIDENT - PROPERTY DAMAGE
17-0403495 2425 DAVE WARD DR Apr 20 2017 03:42:55:157PM TERRORISTIC THREATENING
17-0403494 201 SKYLINE DR Apr 20 2017 03:42:54:313PM 911 HANGUP CALL
17-0403493 1475 JOYNER DR Apr 20 2017 03:37:52:730PM ATTEMPT TO CONTACT
17-0403491 17-04758 1001 COLLEGE AV Apr 20 2017 03:32:53:100PM ACCIDENT - PROPERTY DAMAGE
17-0403490 17-04757 1111 MAIN ST Apr 20 2017 03:24:31:287PM ACCIDENT - PRIVATE PROPERTY
17-0403487 17-04756 580 E DAVE WARD DR Apr 20 2017 02:58:37:610PM FRAUD
17-0403485 801 SOUTH GERMAN LN Apr 20 2017 02:52:30:830PM AGENCY ASSIST
17-0403484 1300 BEAN ST Apr 20 2017 02:37:44:283PM DOMESTIC DISTURBANCE
17-0403483 710 S SALEM RD Apr 20 2017 02:36:53:593PM CITIZEN ASSIST
17-0403482 201 SKYLINE DR Apr 20 2017 02:34:05:597PM SUPPLEMENT REPORT CALL
17-0403479 701 REEDY RD Apr 20 2017 02:27:21:637PM DISTURBANCE
17-0403478 850 OAK ST Apr 20 2017 02:27:20:757PM DOMESTIC DISTURBANCE
17-0403473 2302 COLLEGE AV Apr 20 2017 02:07:45:747PM DOMESTIC DISTURBANCE
17-0403469 2011 ROBINSON AV Apr 20 2017 01:57:32:187PM THEFT OF PROPERTY
17-0403468 4203 MALLARD LN Apr 20 2017 01:56:06:180PM ATTEMPT TO CONTACT
17-0403466 3060 PEBBLE BEACH DR Apr 20 2017 01:42:36:367PM ATTEMPT TO CONTACT
17-0403462 1025 S DONAGHEY AV Apr 20 2017 01:23:40:913PM VEHICLE TOW
17-0403461 475 ROBINS ST Apr 20 2017 01:14:51:297PM CHECK ON THE WELFARE
17-0403460 2625 REDHAVEN DR Apr 20 2017 01:13:45:900PM SERVING SUBPOENA
17-0403458 17-04750 1111 MAIN ST Apr 20 2017 01:07:19:380PM HARASSING COMMUNICATIONS
17-0403456 17-04748 899 ELSINGER BLVD Apr 20 2017 01:01:51:187PM ACCIDENT - PROPERTY DAMAGE
17-0403455 831 NUTTERS CHAPEL RD Apr 20 2017 12:59:03:483PM SERVING SUBPOENA
17-0403454 150 S HOGAN LN Apr 20 2017 12:57:21:747PM TERRORISTIC THREATENING
17-0403451 1470 CROSSPOINT RD Apr 20 2017 12:49:51:857PM SERVING SUBPOENA
17-0403450 941 LOCUST AV Apr 20 2017 12:49:23:930PM SUSPICIOUS PERSON
17-0403447 1040 CROSSPOINT RD Apr 20 2017 12:37:41:883PM SERVING SUBPOENA
17-0403445 1516 COLLEGE AV Apr 20 2017 12:36:44:640PM HARASSMENT
17-0403443 2270 MEADOWLAKE RD Apr 20 2017 12:32:56:813PM CHECK ON THE WELFARE
17-0403436 17-04744 900 PARKWAY ST Apr 20 2017 11:59:45:713AM ACCIDENT - PROPERTY DAMAGE
17-0403434 205 MILL ST Apr 20 2017 11:55:44:720AM ATTEMPT TO CONTACT
17-0403432 17-04743 300 HARKRIDER ST Apr 20 2017 11:43:11:590AM ACCIDENT - HIT AND RUN
17-0403428 17-04742 855 SALEM RD Apr 20 2017 11:25:52:057AM ACCIDENT - PRIVATE PROPERTY
17-0403425 823 OAK ST Apr 20 2017 11:10:04:837AM STALLED VEHICLE
17-0403420 435 LOUISE LN Apr 20 2017 10:51:24:897AM AGENCY ASSIST
17-0403416 255 EAST GERMAN LN Apr 20 2017 10:32:14:690AM STALLED VEHICLE
17-0403411 100 SKYLINE DR Apr 20 2017 10:13:17:713AM INTOXICATED DRIVER
17-0403410 3604 OLD MORRILTON HWY Apr 20 2017 09:58:58:487AM STALLED VEHICLE
17-0403407 5100 ROUND ROCK DR Apr 20 2017 09:51:53:247AM ALARM
17-0403406 620 CHESTNUT ST Apr 20 2017 09:38:09:313AM SUPPLEMENT REPORT CALL
17-0403403 1500 MUSEUM RD Apr 20 2017 09:28:18:613AM ABANDONED VEHICLE
17-0403400 1010 E OAK ST Apr 20 2017 09:18:46:263AM TRESPASSING
17-0403397 17-04741 2100 DAVE WARD DR Apr 20 2017 08:49:55:740AM ACCIDENT - PROPERTY DAMAGE
17-0403395 2260 SANDERS ST Apr 20 2017 08:23:10:853AM CHECK ON THE WELFARE
17-0403393 17-04740 201 SKYLINE DR Apr 20 2017 08:01:53:570AM ACCIDENT - PROPERTY DAMAGE
17-0403391 317 DAVIS ST Apr 20 2017 07:52:41:680AM ATTEMPT TO CONTACT
17-0403390 2200 PRINCE ST Apr 20 2017 07:43:53:433AM TRAFFIC PROBLEM-CONTROL
17-0403389 831 NUTTERS CHAPEL RD Apr 20 2017 07:40:05:620AM THEFT OF PROPERTY
17-0403387 17-04739 601 DAVE WARD DR Apr 20 2017 07:10:26:880AM ACCIDENT - PERSONAL INJURY
17-0403386 3430 IRBY DR Apr 20 2017 05:30:07:493AM HARASSING COMMUNICATIONS
17-0403385 270 E SKYLINE DR Apr 20 2017 04:44:32:420AM ALARM
17-0403382 2430 SANDERS ST Apr 20 2017 03:26:31:183AM CHECKING VEHICLE
17-0403381 530 1ST AV Apr 20 2017 03:14:26:120AM REPOSSESSION
17-0403377 5905 PARK PLACE DR Apr 20 2017 01:50:32:520AM OPEN DOOR/WINDOW/FENCE
17-0403376 475 ROBINS ST Apr 20 2017 01:35:58:453AM AGENCY ASSIST
17-0403374 2420 BROADVIEW AV Apr 20 2017 12:51:14:610AM CHECKING VEHICLE
17-0403372 850 OAK ST Apr 20 2017 12:27:24:410AM CHECKING VEHICLE
17-0403371 17-04737 1000 WESTERN AV Apr 20 2017 12:20:56:407AM ACCIDENT - HIT AND RUN
17-0403370 2730 DAVE WARD DR Apr 20 2017 12:12:24:050AM REPOSSESSION
17-0403369 17-04738 601 DAVE WARD DR Apr 20 2017 12:03:30:367AM INTOXICATED DRIVER
17-0403367 17-04736 605 SOUTH GERMAN LN Apr 19 2017 11:35:43:150PM SUSPICIOUS PERSON
17-0403366 20 KINLEY DR Apr 19 2017 11:34:37:337PM CHECKING VEHICLE
17-0403365 500 S EAST GERMAN LN Apr 19 2017 11:34:24:590PM CHECKING VEHICLE
17-0403364 1405 DOGWOOD TRL Apr 19 2017 11:21:42:637PM OPEN DOOR/WINDOW/FENCE
17-0403363 311 OAK ST Apr 19 2017 11:10:45:300PM TRESPASSING
17-0403362 1002 E OAK ST Apr 19 2017 11:10:05:360PM HARASSMENT
17-0403360 1310 CLIFTON ST Apr 19 2017 10:53:00:773PM DISTURBANCE
17-0403355 214 CENTER ST Apr 19 2017 10:20:23:470PM LOUD NOISE-MUSIC
17-0403354 825 CENTER ST Apr 19 2017 10:19:33:420PM HARASSMENT
17-0403352 1310 CLIFTON ST Apr 19 2017 10:06:06:303PM ATTEMPT TO CONTACT
17-0403351 1250 NORTH ST Apr 19 2017 10:05:37:287PM AGENCY ASSIST
17-0403350 2000 KEATHLEY DR Apr 19 2017 10:03:41:840PM CHECK ON THE WELFARE
17-0403347 835 S DONAGHEY AV Apr 19 2017 09:23:06:947PM VEHICLE TOW
17-0403346 805 OAK ST Apr 19 2017 08:52:31:933PM ALARM
17-0403345 17-04735 1310 CLIFTON ST Apr 19 2017 08:49:55:013PM DOMESTIC DISTURBANCE
17-0403344 1175 MORNINGSIDE DR Apr 19 2017 08:36:30:223PM AGENCY ASSIST
17-0403343 17-04734 835 S DONAGHEY AV Apr 19 2017 08:35:07:017PM THEFT OF PROPERTY
17-0403342 107 CLUB LN Apr 19 2017 08:29:23:883PM LOUD NOISE-MUSIC
17-0403340 1605 E OAK ST Apr 19 2017 08:16:09:423PM TRAFFIC PROBLEM-CONTROL
17-0403336 201 SKYLINE DR Apr 19 2017 07:30:01:697PM DOMESTIC DISTURBANCE
17-0403335 420 2ND AV Apr 19 2017 06:58:03:737PM ATTEMPT TO CONTACT
17-0403333 2045 DAVE WARD DR Apr 19 2017 06:44:43:487PM 911 HANGUP CALL
17-0403332 2840 DAVE WARD DR Apr 19 2017 05:41:48:000PM PROPERTY DAMAGE
17-0403331 350 SALEM RD Apr 19 2017 05:36:27:500PM ENDANGERING WELFARE OF MINOR
17-0403330 17-04731 655 ELSINGER BLVD Apr 19 2017 05:35:52:130PM ACCIDENT - PRIVATE PROPERTY
17-0403329 2306 INDEPENDENCE AV Apr 19 2017 05:35:40:620PM STALLED VEHICLE
17-0403328 117 OAKLAWN DR Apr 19 2017 05:18:07:163PM ATTEMPT TO CONTACT
17-0403327 17-04727 900 FRONT ST Apr 19 2017 05:14:32:977PM ACCIDENT - HIT AND RUN
17-0403326 17-04730 201 SKYLINE DR Apr 19 2017 05:10:18:290PM SUSPICIOUS ACTIVITY
17-0403325 1001 FRONT ST Apr 19 2017 04:59:32:510PM SUPPLEMENT REPORT CALL
17-0403323 1300 TONY CIR Apr 19 2017 04:53:26:520PM CIVIL STAND BY
17-0403322 17-04728 1403 BEAN ST Apr 19 2017 04:53:04:860PM TERRORISTIC THREATENING
17-0403321 1301 BRUCE ST Apr 19 2017 04:50:24:710PM ABANDONED VEHICLE
17-0403320 530 S DONAGHEY AV Apr 19 2017 04:48:59:940PM ATTEMPT TO CONTACT
17-0403319 17-04726 655 ELSINGER BLVD Apr 19 2017 04:46:13:550PM SHOPLIFTING
17-0403318 222 E DAVE WARD DR Apr 19 2017 04:20:13:260PM ANIMAL BITE
17-0403317 17-04724 3099 SALEM RD Apr 19 2017 04:12:21:810PM ACCIDENT - PROPERTY DAMAGE
17-0403316 17-04725 1655 DAVE WARD DR Apr 19 2017 04:12:19:573PM ACCIDENT - PROPERTY DAMAGE
17-0403315 205 MILL ST Apr 19 2017 04:06:58:390PM ATTEMPT TO CONTACT
17-0403313 17-04723 1701 SALEM RD Apr 19 2017 03:57:06:190PM ACCIDENT - PROPERTY DAMAGE
17-0403312 309 EXCHANGE AV Apr 19 2017 03:46:02:600PM THEFT OF VEHICLE
17-0403311 3430 IRBY DR Apr 19 2017 03:45:16:823PM SUPPLEMENT REPORT CALL
17-0403308 2360 SANDERS ST Apr 19 2017 03:31:18:227PM CHECK ON THE WELFARE
17-0403307 17-04722 1001 FRONT ST Apr 19 2017 03:29:07:793PM FRAUD
17-0403306 525 SOUTH GERMAN LN Apr 19 2017 03:21:05:497PM DOMESTIC DISTURBANCE
17-0403305 17-04721 314 HELEN ST Apr 19 2017 03:15:21:620PM ASSAULT
17-0403304 925 MITCHELL ST Apr 19 2017 03:12:10:487PM TRAFFIC PROBLEM-CONTROL
17-0403303 48 MOCKINGBIRD LN Apr 19 2017 03:09:29:927PM TRAFFIC PROBLEM-CONTROL
17-0403302 1850 E OAK ST Apr 19 2017 03:05:49:560PM VEHICLE TOW
17-0403301 2150 HARKRIDER ST Apr 19 2017 03:05:27:437PM RECKLESS DRIVER
17-0403299 17-04720 1000 COUNTRY CLUB RD Apr 19 2017 02:53:13:813PM ACCIDENT - PERSONAL INJURY
17-0403298 17-04719 525 SOUTH GERMAN LN Apr 19 2017 02:46:03:900PM DOMESTIC DISTURBANCE
17-0403297 1900 CALDWELL ST Apr 19 2017 02:39:56:137PM SUPPLEMENT REPORT CALL
17-0403296 1915 JOHNSTON AV Apr 19 2017 02:29:12:123PM SUSPICIOUS PERSON
17-0403295 17-04718 530 S DONAGHEY AV Apr 19 2017 02:24:48:130PM ACCIDENT - PRIVATE PROPERTY
17-0403294 17-04715 600 E DAVE WARD DR Apr 19 2017 02:22:44:030PM ACCIDENT - PROPERTY DAMAGE
17-0403293 17-04717 2665 DONAGHEY AV Apr 19 2017 02:20:48:493PM FORGERY
17-0403290 150 E OAK ST Apr 19 2017 02:14:35:993PM LOST PROPERTY
17-0403287 1200 E DAVE WARD DR Apr 19 2017 02:06:57:890PM RECKLESS DRIVER
17-0403286 17-04714 1818 HOGAN LN Apr 19 2017 02:05:51:450PM THEFT OF PROPERTY
17-0403285 1345 E OAK ST Apr 19 2017 02:00:19:737PM ATTEMPT TO CONTACT
17-0403284 809 PARKWAY ST Apr 19 2017 01:51:59:537PM ATTEMPT TO CONTACT
17-0403282 1200 INGRAM ST Apr 19 2017 01:26:17:707PM CHECK ON THE WELFARE
17-0403278 17-04710 504 E OAK ST Apr 19 2017 01:19:42:080PM ACCIDENT - PROPERTY DAMAGE
17-0403277 17-04711 2475 WASHINGTON AV Apr 19 2017 01:19:00:687PM FRAUD
17-0403275 17-04713 201 SKYLINE DR Apr 19 2017 01:12:03:483PM FRAUD
17-0403273 17-04729 1700 MEADOWLAKE RD Apr 19 2017 01:07:54:543PM FIGHT
17-0403270 916 E OAK ST Apr 19 2017 12:53:50:323PM FRAUD
17-0403269 2413 JESSICA DR Apr 19 2017 12:52:43:657PM ATTEMPT TO CONTACT
17-0403267 3200 TYLER ST Apr 19 2017 12:48:54:380PM STALLED VEHICLE
17-0403263 17-04709 245 HAYES ST Apr 19 2017 12:21:48:483PM BREAKING OR ENTERING
17-0403261 17-04707 2015 RICH SMITH LN Apr 19 2017 12:10:23:693PM DOMESTIC DISTURBANCE
17-0403260 17-04708 620 CHESTNUT ST Apr 19 2017 12:00:37:050PM FRAUD
17-0403257 755 CHERUB DR Apr 19 2017 11:56:27:590AM CHECKING PERSON
17-0403252 1050 ELLIS AV Apr 19 2017 11:44:30:043AM TRESPASSING
17-0403249 2505 E OAK ST Apr 19 2017 11:33:20:020AM INTOXICATED PERSON
17-0403245 17-04704 2125 HARKRIDER ST Apr 19 2017 11:10:51:623AM ACCIDENT - PRIVATE PROPERTY
17-0403238 1550 PYRAMID DR Apr 19 2017 10:43:56:550AM ATTEMPT TO CONTACT
17-0403237 17-04703 1105 PRAIRIE ST Apr 19 2017 10:41:51:680AM FRAUD
17-0403236 2270 NATURE TRL Apr 19 2017 10:41:13:743AM ALARM
17-0403235 1305 TONY CIR Apr 19 2017 10:39:32:843AM AGENCY ASSIST
17-0403232 402 S CENTER ST Apr 19 2017 10:08:00:460AM SERVING SUBPOENA
17-0403231 102 DONAGHEY AV Apr 19 2017 09:59:36:747AM STALLED VEHICLE
17-0403230 3900 DAVE WARD DR Apr 19 2017 09:56:17:977AM SERVING SUBPOENA
17-0403229 17-04702 700 LOCUST AV Apr 19 2017 09:51:22:507AM ACCIDENT - PROPERTY DAMAGE
17-0403226 1500 HARKRIDER ST Apr 19 2017 09:42:18:090AM SUPPLEMENT REPORT CALL
17-0403225 3150 BOONE DR Apr 19 2017 09:39:43:627AM ALARM
17-0403224 425 MILDRED ST Apr 19 2017 09:38:52:990AM SERVING SUBPOENA
17-0403223 2100 DAVE WARD DR Apr 19 2017 09:28:55:937AM STALLED VEHICLE
17-0403222 821 HOGAN LN Apr 19 2017 09:26:05:320AM FRAUD
17-0403221 3360 LONDON RD Apr 19 2017 09:21:49:990AM SERVING SUBPOENA
17-0403219 1604 CALDWELL ST Apr 19 2017 09:09:54:600AM ACCIDENT - PROPERTY DAMAGE
17-0403218 17-04701 1600 CALDWELL ST Apr 19 2017 09:09:52:157AM ACCIDENT - PROPERTY DAMAGE
17-0403217 17-04700 3050 PEBBLE BEACH DR Apr 19 2017 08:44:51:207AM ACCIDENT - PRIVATE PROPERTY
17-0403216 17-04699 1001 MUSEUM RD Apr 19 2017 08:42:22:247AM ACCIDENT - PROPERTY DAMAGE
17-0403215 1839 TYLER ST Apr 19 2017 08:25:00:080AM HARASSING COMMUNICATIONS
17-0403213 2512 BRUCE ST Apr 19 2017 08:14:55:030AM SUSPICIOUS PERSON
17-0403209 1350 CROSSPOINT RD Apr 19 2017 07:46:16:970AM DOMESTIC DISTURBANCE
17-0403208 2845 CARL STUART ST Apr 19 2017 07:39:09:787AM SUSPICIOUS PERSON
17-0403206 17-04697 2100 DAVE WARD DR Apr 19 2017 06:40:54:623AM ACCIDENT - PROPERTY DAMAGE
17-0403205 2299 E OAK ST Apr 19 2017 06:23:32:480AM CHECK ON THE WELFARE
17-0403204 1005 SOUTH GERMAN LN Apr 19 2017 06:16:29:403AM AGENCY ASSIST
17-0403203 17-04698 2840 DAVE WARD DR Apr 19 2017 06:09:16:600AM AGENCY ASSIST
17-0403202 1161 OLD MORRILTON HWY Apr 19 2017 06:01:07:847AM CHECK ON THE WELFARE
17-0403201 10 PATTON CIR Apr 19 2017 06:00:51:237AM AGENCY ASSIST
17-0403200 26 WOODLAWN DR Apr 19 2017 05:19:29:793AM REPOSSESSION
17-0403196 2116 WASHINGTON AV Apr 19 2017 04:43:42:180AM CHECKING PERSON
17-0403195 825 2ND ST Apr 19 2017 04:18:21:300AM CHECKING PERSON
17-0403193 17-04696 610 4TH AV Apr 19 2017 04:04:58:667AM BURGLARY
17-0403192 201 E OAK ST Apr 19 2017 03:54:34:900AM DISTURBANCE
17-0403191 1550 PYRAMID DR Apr 19 2017 03:54:25:390AM CHECKING PERSON
17-0403190 1907 HUTTO ST Apr 19 2017 03:50:47:707AM OPEN DOOR/WINDOW/FENCE
17-0403189 17-04695 2007 HUTTO ST Apr 19 2017 03:41:42:667AM BREAKING OR ENTERING
17-0403188 130 HARKRIDER ST Apr 19 2017 02:58:30:793AM ATTEMPT TO CONTACT
17-0403187 420 OAK ST Apr 19 2017 02:39:03:567AM ATTEMPT TO CONTACT
17-0403185 20 KINLEY DR Apr 19 2017 01:20:51:153AM CHECKING VEHICLE
17-0403183 17-04694 1002 E OAK ST Apr 19 2017 01:08:18:537AM CHECKING PERSON
17-0403182 2125 HARKRIDER ST Apr 19 2017 01:04:54:357AM CHECKING PERSON
17-0403179 905 SKYLINE DR Apr 19 2017 12:50:49:337AM CHECKING PERSON
17-0403178 615 ROBINS ST Apr 19 2017 12:22:59:950AM CHECKING PERSON
17-0403177 1555 EXCHANGE AV Apr 19 2017 12:13:45:647AM DISTURBANCE
17-0403176 475 ROBINS ST Apr 19 2017 12:12:37:120AM DOMESTIC DISTURBANCE
17-0403175 2603 DAVE WARD DR Apr 19 2017 12:02:03:213AM DISTURBANCE
Call Number Case Number Address Call Time Incident Type

General Contacts

POLICE HEADQUARTERS
1105 Prairie Street
Conway, AR 72032

Conway Police Department


  911 (EMERGENCIES ONLY)

  501.450.6120 (non-emergency)

ANONYMOUS TIPS
 Leave a message at 501.450.6135
 Text CONWAY and your tip to 274637 (CRIMES) Click for an Example

   

City of Conway

We, the members of the Conway Police Department, are committed to protecting and serving the citizens of Conway, Arkansas. That is our highest calling, as we pledge to join hands with others in carrying out our sworn duty to uphold the law.

Chief Jody Spradlin

Latest Tweets